| time (UTC) | temp F | wind direction | speed MPH | gust MPH | rain 1hr in | rain 24hr in | rain mn in | humidity % | barometer mb |
| 20260508025745 | 44 | 68 | 1.0 | 2.0 | 0.00 | 0.00 | 0.00 | 92 | 1020.0 |
| 20260508025545 | 44 | 68 | 1.0 | 3.0 | 0.00 | 0.00 | 0.00 | 92 | 1020.1 |
| 20260508025355 | 44 | 68 | 1.0 | 5.0 | 0.00 | 0.00 | 0.00 | 92 | 1020.1 |
| 20260508025215 | 44 | 22 | 1.0 | 3.0 | 0.00 | 0.00 | 0.00 | 92 | 1020.0 |
| 20260508025055 | 44 | 22 | 1.0 | 5.0 | 0.00 | 0.00 | 0.00 | 92 | 1020.0 |
| 20260508025030 | 44 | 22 | 1.0 | 5.0 | 0.00 | 0.00 | 0.00 | 92 | 1020.0 |
| 20260508024850 | 44 | 22 | 0.0 | 5.0 | 0.00 | 0.00 | 0.00 | 92 | 1020.1 |
| 20260508024705 | 44 | 22 | 0.0 | 5.0 | 0.00 | 0.00 | 0.00 | 92 | 1020.0 |
| 20260508024510 | 44 | 0 | 0.0 | 0.0 | 0.00 | 0.00 | 0.00 | 92 | 1020.0 |
| 20260508024331 | 44 | 0 | 0.0 | 0.0 | 0.00 | 0.00 | 0.00 | 92 | 1020.0 |
| 20260508024137 | 44 | 0 | 0.0 | 0.0 | 0.00 | 0.00 | 0.00 | 92 | 1020.0 |
| 20260508023955 | 44 | 0 | 0.0 | 0.0 | 0.00 | 0.00 | 0.00 | 93 | 1020.0 |
| 20260508023757 | 44 | 0 | 0.0 | 0.0 | 0.00 | 0.00 | 0.00 | 92 | 1019.9 |
| 20260508023609 | 44 | 0 | 0.0 | 0.0 | 0.00 | 0.00 | 0.00 | 93 | 1019.9 |
| 20260508023420 | 44 | 0 | 0.0 | 0.0 | 0.00 | 0.00 | 0.00 | 93 | 1020.0 |
| 20260508023316 | 44 | 0 | 0.0 | 0.0 | 0.00 | 0.00 | 0.00 | 93 | 1020.0 |
| 20260508023225 | 44 | 0 | 0.0 | 0.0 | 0.00 | 0.00 | 0.00 | 93 | 1019.9 |
| 20260508023040 | 44 | 0 | 0.0 | 0.0 | 0.00 | 0.00 | 0.00 | 93 | 1019.9 |
| 20260508022858 | 44 | 0 | 0.0 | 0.0 | 0.00 | 0.00 | 0.00 | 93 | 1019.9 |
| 20260508022717 | 44 | 0 | 0.0 | 0.0 | 0.00 | 0.00 | 0.00 | 93 | 1020.0 |
| 20260508022523 | 44 | 0 | 0.0 | 0.0 | 0.00 | 0.00 | 0.00 | 93 | 1019.9 |
| 20260508022344 | 44 | 0 | 0.0 | 0.0 | 0.00 | 0.00 | 0.00 | 93 | 1019.9 |
| 20260508022155 | 44 | 0 | 0.0 | 0.0 | 0.00 | 0.00 | 0.00 | 94 | 1019.9 |
| 20260508022015 | 44 | 0 | 0.0 | 0.0 | 0.00 | 0.00 | 0.00 | 94 | 1019.9 |
| 20260508021815 | 44 | 0 | 0.0 | 0.0 | 0.00 | 0.00 | 0.00 | 94 | 1019.9 |
| 20260508021630 | 44 | 0 | 0.0 | 0.0 | 0.00 | 0.00 | 0.00 | 94 | 1019.9 |
| 20260508021435 | 44 | 0 | 0.0 | 0.0 | 0.00 | 0.00 | 0.00 | 94 | 1019.9 |
| 20260508021244 | 44 | 0 | 0.0 | 0.0 | 0.00 | 0.00 | 0.00 | 94 | 1019.9 |
| 20260508021059 | 44 | 0 | 0.0 | 0.0 | 0.00 | 0.00 | 0.00 | 94 | 1019.9 |
| 20260508020905 | 44 | 0 | 0.0 | 0.0 | 0.00 | 0.00 | 0.00 | 94 | 1019.9 |
| 20260508020710 | 44 | 0 | 0.0 | 0.0 | 0.00 | 0.00 | 0.00 | 94 | 1020.0 |
| 20260508020530 | 44 | 0 | 0.0 | 0.0 | 0.00 | 0.00 | 0.00 | 94 | 1019.9 |
| 20260508020339 | 44 | 0 | 0.0 | 1.0 | 0.00 | 0.00 | 0.00 | 94 | 1020.0 |
| 20260508020155 | 44 | 0 | 0.0 | 2.0 | 0.00 | 0.00 | 0.00 | 94 | 1020.0 |
| 20260508020000 | 44 | 22 | 0.0 | 2.0 | 0.00 | 0.00 | 0.00 | 94 | 1020.0 |
| 20260508015826 | 44 | 22 | 0.0 | 2.0 | 0.00 | 0.00 | 0.00 | 94 | 1020.0 |
| 20260508015805 | 44 | 22 | 0.0 | 2.0 | 0.00 | 0.00 | 0.00 | 94 | 1020.0 |
| 20260508015605 | 44 | 22 | 0.0 | 2.0 | 0.00 | 0.00 | 0.00 | 94 | 1020.0 |
| 20260508015420 | 44 | 22 | 0.0 | 2.0 | 0.00 | 0.00 | 0.00 | 94 | 1020.0 |
| 20260508015234 | 44 | 22 | 0.0 | 2.0 | 0.00 | 0.00 | 0.00 | 94 | 1020.0 |
| 20260508015055 | 44 | 22 | 1.0 | 2.0 | 0.00 | 0.00 | 0.00 | 94 | 1020.0 |
| 20260508014915 | 44 | 22 | 0.0 | 2.0 | 0.00 | 0.00 | 0.00 | 94 | 1019.9 |
| 20260508014725 | 44 | 22 | 0.0 | 2.0 | 0.00 | 0.00 | 0.00 | 94 | 1020.0 |
| 20260508014539 | 44 | 22 | 0.0 | 2.0 | 0.00 | 0.00 | 0.00 | 94 | 1019.9 |
| 20260508014347 | 44 | 22 | 0.0 | 2.0 | 0.00 | 0.00 | 0.00 | 94 | 1020.0 |
| 20260508014158 | 44 | 22 | 0.0 | 2.0 | 0.00 | 0.00 | 0.00 | 94 | 1019.9 |
| 20260508014054 | 44 | 22 | 0.0 | 2.0 | 0.00 | 0.00 | 0.00 | 94 | 1020.0 |
| 20260508014005 | 44 | 0 | 0.0 | 0.0 | 0.00 | 0.00 | 0.00 | 94 | 1019.9 |
| 20260508013805 | 44 | 0 | 0.0 | 0.0 | 0.00 | 0.00 | 0.00 | 94 | 1019.9 |
| 20260508013610 | 44 | 0 | 0.0 | 0.0 | 0.00 | 0.00 | 0.00 | 94 | 1019.9 |
| 20260508013415 | 44 | 0 | 0.0 | 0.0 | 0.00 | 0.00 | 0.00 | 94 | 1019.9 |
| 20260508013230 | 44 | 0 | 0.0 | 0.0 | 0.00 | 0.00 | 0.00 | 94 | 1019.9 |
| 20260508013030 | 44 | 0 | 0.0 | 0.0 | 0.00 | 0.00 | 0.00 | 94 | 1019.8 |
| 20260508012849 | 44 | 0 | 0.0 | 0.0 | 0.00 | 0.00 | 0.00 | 94 | 1019.9 |
| 20260508012655 | 44 | 0 | 0.0 | 1.0 | 0.00 | 0.00 | 0.00 | 94 | 1019.8 |
| 20260508012513 | 44 | 0 | 0.0 | 1.0 | 0.00 | 0.00 | 0.00 | 94 | 1019.8 |
| 20260508012321 | 44 | 0 | 0.0 | 1.0 | 0.00 | 0.00 | 0.00 | 94 | 1019.8 |
| 20260508012140 | 44 | 0 | 0.0 | 1.0 | 0.00 | 0.00 | 0.00 | 94 | 1019.7 |
| 20260508011947 | 44 | 0 | 0.0 | 0.0 | 0.00 | 0.00 | 0.00 | 94 | 1019.9 |
| 20260508011803 | 44 | 0 | 0.0 | 0.0 | 0.00 | 0.00 | 0.00 | 94 | 1019.8 |
| 20260508011622 | 44 | 22 | 0.0 | 0.0 | 0.00 | 0.00 | 0.00 | 94 | 1019.8 |
| 20260508011439 | 44 | 22 | 0.0 | 0.0 | 0.00 | 0.00 | 0.00 | 94 | 1019.8 |
| 20260508011255 | 44 | 22 | 0.0 | 2.0 | 0.00 | 0.00 | 0.00 | 94 | 1019.8 |
| 20260508011110 | 44 | 22 | 0.0 | 3.0 | 0.00 | 0.00 | 0.00 | 94 | 1019.7 |
| 20260508010923 | 44 | 22 | 0.0 | 3.0 | 0.00 | 0.00 | 0.00 | 94 | 1019.8 |
| 20260508010725 | 44 | 0 | 0.0 | 0.0 | 0.00 | 0.00 | 0.00 | 94 | 1019.7 |
| 20260508010545 | 44 | 0 | 0.0 | 0.0 | 0.00 | 0.00 | 0.00 | 94 | 1019.7 |
| 20260508010345 | 44 | 0 | 0.0 | 0.0 | 0.00 | 0.00 | 0.00 | 93 | 1019.7 |
| 20260508010149 | 44 | 0 | 0.0 | 0.0 | 0.00 | 0.00 | 0.00 | 93 | 1019.7 |
| 20260508005950 | 44 | 0 | 0.0 | 0.0 | 0.00 | 0.00 | 0.00 | 93 | 1019.7 |
| 20260508005805 | 44 | 22 | 0.0 | 2.0 | 0.00 | 0.00 | 0.00 | 93 | 1019.6 |
| 20260508005615 | 44 | 22 | 0.0 | 2.0 | 0.00 | 0.00 | 0.00 | 93 | 1019.7 |
| 20260508005435 | 44 | 22 | 0.0 | 2.0 | 0.00 | 0.00 | 0.00 | 93 | 1019.6 |
| 20260508005250 | 44 | 22 | 0.0 | 2.0 | 0.00 | 0.00 | 0.00 | 93 | 1019.7 |
| 20260508005103 | 44 | 22 | 0.0 | 2.0 | 0.00 | 0.00 | 0.00 | 93 | 1019.6 |
| 20260508004925 | 44 | 0 | 0.0 | 2.0 | 0.00 | 0.00 | 0.00 | 93 | 1019.7 |
| 20260508004852 | 44 | 0 | 0.0 | 2.0 | 0.00 | 0.00 | 0.00 | 93 | 1019.7 |
| 20260508004745 | 44 | 0 | 0.0 | 0.0 | 0.00 | 0.00 | 0.00 | 93 | 1019.7 |
| 20260508004605 | 44 | 22 | 0.0 | 0.0 | 0.00 | 0.00 | 0.00 | 93 | 1019.7 |
| 20260508004418 | 44 | 22 | 0.0 | 0.0 | 0.00 | 0.00 | 0.00 | 93 | 1019.7 |
| 20260508004238 | 44 | 22 | 0.0 | 0.0 | 0.00 | 0.00 | 0.00 | 93 | 1019.7 |
| 20260508004055 | 44 | 22 | 0.0 | 2.0 | 0.00 | 0.00 | 0.00 | 93 | 1019.6 |
| 20260508003907 | 44 | 22 | 0.0 | 2.0 | 0.00 | 0.00 | 0.00 | 93 | 1019.7 |
| 20260508003720 | 44 | 22 | 0.0 | 2.0 | 0.00 | 0.00 | 0.00 | 93 | 1019.8 |
| 20260508003525 | 44 | 22 | 0.0 | 0.0 | 0.00 | 0.00 | 0.00 | 93 | 1019.6 |
| 20260508003344 | 44 | 22 | 0.0 | 2.0 | 0.00 | 0.00 | 0.00 | 93 | 1019.7 |
| 20260508003205 | 44 | 22 | 0.0 | 2.0 | 0.00 | 0.00 | 0.00 | 93 | 1019.6 |
| 20260508003010 | 44 | 22 | 0.0 | 2.0 | 0.00 | 0.00 | 0.00 | 93 | 1019.7 |
| 20260508002825 | 44 | 22 | 1.0 | 2.0 | 0.00 | 0.00 | 0.00 | 93 | 1019.6 |
| 20260508002625 | 44 | 22 | 1.0 | 1.0 | 0.00 | 0.00 | 0.00 | 93 | 1019.7 |
| 20260508002429 | 44 | 22 | 1.0 | 3.0 | 0.00 | 0.00 | 0.00 | 93 | 1019.7 |
| 20260508002240 | 44 | 22 | 1.0 | 5.0 | 0.00 | 0.00 | 0.00 | 93 | 1019.7 |
| 20260508002055 | 44 | 22 | 1.0 | 5.0 | 0.00 | 0.00 | 0.00 | 93 | 1019.7 |
| 20260508001915 | 44 | 22 | 1.0 | 5.0 | 0.00 | 0.00 | 0.00 | 93 | 1019.6 |
| 20260508001725 | 44 | 22 | 0.0 | 2.0 | 0.00 | 0.00 | 0.00 | 93 | 1019.7 |
| 20260508001545 | 44 | 22 | 0.0 | 2.0 | 0.00 | 0.00 | 0.00 | 93 | 1019.6 |
| 20260508001346 | 44 | 22 | 0.0 | 2.0 | 0.00 | 0.00 | 0.00 | 93 | 1019.7 |
| 20260508001311 | 44 | 22 | 0.0 | 2.0 | 0.00 | 0.00 | 0.00 | 93 | 1019.8 |
| 20260508001200 | 44 | 22 | 0.0 | 0.0 | 0.00 | 0.00 | 0.00 | 93 | 1019.7 |
| 20260508001019 | 44 | 22 | 0.0 | 2.0 | 0.00 | 0.00 | 0.00 | 93 | 1019.7 |
| 20260508000836 | 44 | 22 | 0.0 | 2.0 | 0.00 | 0.00 | 0.00 | 93 | 1019.7 |
| 20260508000700 | 44 | 22 | 1.0 | 2.0 | 0.00 | 0.00 | 0.00 | 93 | 1019.7 |
| 20260508000515 | 44 | 22 | 1.0 | 2.0 | 0.00 | 0.00 | 0.00 | 93 | 1019.7 |
| 20260508000320 | 44 | 22 | 1.0 | 2.0 | 0.00 | 0.00 | 0.00 | 94 | 1019.6 |
| 20260508000125 | 44 | 22 | 1.0 | 2.0 | 0.00 | 0.00 | 0.00 | 94 | 1019.7 |
| 20260507235925 | 44 | 22 | 1.0 | 2.0 | 0.00 | 0.00 | 0.00 | 94 | 1019.8 |
| 20260507235735 | 44 | 22 | 1.0 | 4.0 | 0.00 | 0.00 | 0.00 | 94 | 1019.7 |
| 20260507235549 | 44 | 22 | 0.0 | 4.0 | 0.00 | 0.00 | 0.00 | 94 | 1019.7 |
| 20260507235423 | 44 | 22 | 1.0 | 4.0 | 0.00 | 0.00 | 0.00 | 94 | 1019.7 |
| 20260507235355 | 44 | 22 | 1.0 | 4.0 | 0.00 | 0.00 | 0.00 | 94 | 1019.7 |
| 20260507235215 | 44 | 22 | 1.0 | 2.0 | 0.00 | 0.00 | 0.00 | 94 | 1019.7 |
| 20260507235014 | 44 | 22 | 0.0 | 3.0 | 0.00 | 0.00 | 0.00 | 95 | 1019.7 |
| 20260507234825 | 44 | 22 | 1.0 | 3.0 | 0.00 | 0.00 | 0.00 | 95 | 1019.7 |
| 20260507234626 | 44 | 22 | 1.0 | 2.0 | 0.00 | 0.00 | 0.00 | 95 | 1019.7 |
| 20260507234429 | 44 | 22 | 1.0 | 3.0 | 0.00 | 0.00 | 0.00 | 95 | 1019.7 |
| 20260507234245 | 44 | 45 | 1.0 | 3.0 | 0.00 | 0.00 | 0.00 | 95 | 1019.7 |
| 20260507234043 | 44 | 45 | 0.0 | 2.0 | 0.00 | 0.00 | 0.00 | 95 | 1019.7 |
| 20260507233900 | 44 | 45 | 0.0 | 2.0 | 0.00 | 0.00 | 0.00 | 95 | 1019.7 |
| 20260507233725 | 44 | 45 | 0.0 | 2.0 | 0.00 | 0.00 | 0.00 | 95 | 1019.8 |
| 20260507233634 | 44 | 45 | 0.0 | 2.0 | 0.00 | 0.00 | 0.00 | 95 | 1019.7 |
| 20260507233535 | 44 | 45 | 0.0 | 2.0 | 0.00 | 0.00 | 0.00 | 95 | 1019.7 |
| 20260507233352 | 44 | 45 | 0.0 | 2.0 | 0.00 | 0.00 | 0.00 | 95 | 1019.8 |
| 20260507233155 | 44 | 45 | 0.0 | 2.0 | 0.00 | 0.00 | 0.00 | 95 | 1019.8 |
| 20260507233015 | 44 | 0 | 0.0 | 1.0 | 0.00 | 0.00 | 0.00 | 95 | 1019.8 |
| 20260507232829 | 44 | 0 | 0.0 | 1.0 | 0.00 | 0.00 | 0.00 | 95 | 1019.8 |
| 20260507232640 | 44 | 0 | 0.0 | 1.0 | 0.00 | 0.00 | 0.00 | 94 | 1019.8 |
| 20260507232450 | 44 | 0 | 0.0 | 1.0 | 0.00 | 0.00 | 0.00 | 94 | 1019.7 |
| 20260507232306 | 44 | 0 | 0.0 | 0.0 | 0.00 | 0.00 | 0.00 | 94 | 1019.8 |
| 20260507232129 | 44 | 0 | 0.0 | 0.0 | 0.00 | 0.00 | 0.00 | 94 | 1019.8 |
| 20260507231944 | 44 | 0 | 0.0 | 0.0 | 0.00 | 0.00 | 0.00 | 94 | 1019.8 |
| 20260507231835 | 44 | 45 | 0.0 | 0.0 | 0.00 | 0.00 | 0.00 | 94 | 1019.7 |
| 20260507231744 | 44 | 45 | 0.0 | 0.0 | 0.00 | 0.00 | 0.00 | 94 | 1019.7 |
| 20260507231605 | 44 | 45 | 0.0 | 2.0 | 0.00 | 0.00 | 0.00 | 94 | 1019.8 |
| 20260507231410 | 44 | 45 | 0.0 | 2.0 | 0.00 | 0.00 | 0.00 | 94 | 1019.7 |
| 20260507231228 | 44 | 45 | 0.0 | 2.0 | 0.00 | 0.00 | 0.00 | 94 | 1019.8 |
| 20260507231040 | 44 | 45 | 0.0 | 2.0 | 0.00 | 0.00 | 0.00 | 94 | 1019.8 |
| 20260507230855 | 44 | 45 | 0.0 | 2.0 | 0.00 | 0.00 | 0.00 | 94 | 1019.8 |
| 20260507230715 | 44 | 0 | 0.0 | 2.0 | 0.00 | 0.00 | 0.00 | 94 | 1019.8 |
| 20260507230532 | 44 | 0 | 0.0 | 2.0 | 0.00 | 0.00 | 0.00 | 94 | 1019.7 |
| 20260507230340 | 44 | 0 | 0.0 | 2.0 | 0.00 | 0.00 | 0.00 | 94 | 1019.8 |
| 20260507230313 | 44 | 0 | 0.0 | 2.0 | 0.00 | 0.00 | 0.00 | 94 | 1019.8 |
| 20260507230155 | 44 | 0 | 0.0 | 0.0 | 0.00 | 0.00 | 0.00 | 94 | 1019.7 |
| 20260507230015 | 44 | 0 | 0.0 | 0.0 | 0.00 | 0.00 | 0.00 | 93 | 1019.8 |
| 20260507225829 | 45 | 0 | 0.0 | 0.0 | 0.00 | 0.00 | 0.00 | 93 | 1019.7 |
| 20260507225635 | 45 | 0 | 0.0 | 0.0 | 0.00 | 0.00 | 0.00 | 93 | 1019.7 |
| 20260507225443 | 45 | 0 | 0.0 | 0.0 | 0.00 | 0.00 | 0.00 | 93 | 1019.7 |
| 20260507225255 | 45 | 0 | 0.0 | 2.0 | 0.00 | 0.00 | 0.00 | 93 | 1019.7 |
| 20260507225115 | 45 | 45 | 0.0 | 2.0 | 0.00 | 0.00 | 0.00 | 93 | 1019.7 |
| 20260507224912 | 45 | 45 | 0.0 | 2.0 | 0.00 | 0.00 | 0.00 | 92 | 1019.8 |
| 20260507224735 | 45 | 0 | 0.0 | 0.0 | 0.00 | 0.00 | 0.00 | 92 | 1019.7 |
| 20260507224607 | 45 | 0 | 0.0 | 1.0 | 0.00 | 0.00 | 0.00 | 92 | 1019.8 |
| 20260507224548 | 45 | 45 | 0.0 | 1.0 | 0.00 | 0.00 | 0.00 | 92 | 1019.8 |
| 20260507224405 | 45 | 45 | 0.0 | 1.0 | 0.00 | 0.00 | 0.00 | 92 | 1019.8 |
| 20260507224225 | 46 | 45 | 1.0 | 0.0 | 0.00 | 0.00 | 0.00 | 92 | 1019.8 |
| 20260507224035 | 46 | 45 | 1.0 | 2.0 | 0.00 | 0.00 | 0.00 | 92 | 1019.7 |
| 20260507223850 | 46 | 45 | 1.0 | 2.0 | 0.00 | 0.00 | 0.00 | 91 | 1019.6 |
| 20260507223705 | 46 | 45 | 1.0 | 2.0 | 0.00 | 0.00 | 0.00 | 91 | 1019.7 |
| 20260507223505 | 46 | 45 | 1.0 | 2.0 | 0.00 | 0.00 | 0.00 | 91 | 1019.6 |
| 20260507223315 | 46 | 45 | 1.0 | 2.0 | 0.00 | 0.00 | 0.00 | 91 | 1019.6 |
| 20260507223118 | 46 | 45 | 0.0 | 2.0 | 0.00 | 0.00 | 0.00 | 91 | 1019.6 |
| 20260507223043 | 46 | 45 | 0.0 | 2.0 | 0.00 | 0.00 | 0.00 | 91 | 1019.6 |
| 20260507222935 | 46 | 45 | 0.0 | 2.0 | 0.00 | 0.00 | 0.00 | 91 | 1019.6 |
| 20260507222739 | 46 | 45 | 1.0 | 2.0 | 0.00 | 0.00 | 0.00 | 91 | 1019.6 |
| 20260507222549 | 46 | 45 | 1.0 | 2.0 | 0.00 | 0.00 | 0.00 | 90 | 1019.5 |
| 20260507222409 | 46 | 45 | 1.0 | 2.0 | 0.00 | 0.00 | 0.00 | 90 | 1019.5 |
| 20260507222229 | 46 | 45 | 1.0 | 2.0 | 0.00 | 0.00 | 0.00 | 90 | 1019.5 |
| 20260507222048 | 47 | 45 | 1.0 | 2.0 | 0.00 | 0.00 | 0.00 | 89 | 1019.6 |
| 20260507221900 | 47 | 45 | 1.0 | 2.0 | 0.00 | 0.00 | 0.00 | 89 | 1019.6 |
| 20260507221720 | 47 | 45 | 1.0 | 2.0 | 0.00 | 0.00 | 0.00 | 89 | 1019.6 |
| 20260507221545 | 47 | 45 | 1.0 | 2.0 | 0.00 | 0.00 | 0.00 | 89 | 1019.6 |
| 20260507221352 | 47 | 45 | 1.0 | 2.0 | 0.00 | 0.00 | 0.00 | 89 | 1019.6 |
| 20260507221209 | 47 | 45 | 1.0 | 2.0 | 0.00 | 0.00 | 0.00 | 89 | 1019.5 |
| 20260507221025 | 47 | 45 | 1.0 | 2.0 | 0.00 | 0.00 | 0.00 | 89 | 1019.5 |
| 20260507220840 | 47 | 45 | 1.0 | 2.0 | 0.00 | 0.00 | 0.00 | 89 | 1019.5 |
| 20260507220700 | 47 | 45 | 1.0 | 2.0 | 0.00 | 0.00 | 0.00 | 89 | 1019.5 |
| 20260507220515 | 47 | 45 | 1.0 | 2.0 | 0.00 | 0.00 | 0.00 | 89 | 1019.5 |
| 20260507220325 | 47 | 45 | 1.0 | 2.0 | 0.00 | 0.00 | 0.00 | 89 | 1019.4 |
| 20260507220125 | 47 | 45 | 1.0 | 3.0 | 0.00 | 0.00 | 0.00 | 89 | 1019.5 |
| 20260507215932 | 47 | 45 | 1.0 | 3.0 | 0.00 | 0.00 | 0.00 | 89 | 1019.4 |
| 20260507215815 | 47 | 45 | 0.0 | 3.0 | 0.00 | 0.00 | 0.00 | 89 | 1019.5 |
| 20260507215745 | 47 | 45 | 0.0 | 3.0 | 0.00 | 0.00 | 0.00 | 89 | 1019.5 |
| 20260507215600 | 47 | 45 | 0.0 | 1.0 | 0.00 | 0.00 | 0.00 | 89 | 1019.4 |
| 20260507215405 | 47 | 45 | 0.0 | 2.0 | 0.00 | 0.00 | 0.00 | 89 | 1019.5 |
| 20260507215210 | 47 | 45 | 1.0 | 2.0 | 0.00 | 0.00 | 0.00 | 89 | 1019.4 |
| 20260507215025 | 47 | 45 | 1.0 | 2.0 | 0.00 | 0.00 | 0.00 | 88 | 1019.5 |
| 20260507214840 | 47 | 45 | 1.0 | 3.0 | 0.00 | 0.00 | 0.00 | 88 | 1019.4 |
| 20260507214655 | 47 | 45 | 1.0 | 3.0 | 0.00 | 0.00 | 0.00 | 88 | 1019.4 |
| 20260507214505 | 47 | 45 | 1.0 | 3.0 | 0.00 | 0.00 | 0.00 | 88 | 1019.3 |
| 20260507214320 | 48 | 45 | 1.0 | 3.0 | 0.00 | 0.00 | 0.00 | 88 | 1019.3 |
| 20260507214126 | 47 | 45 | 1.0 | 3.0 | 0.00 | 0.00 | 0.00 | 88 | 1019.3 |
| 20260507213940 | 47 | 45 | 1.0 | 3.0 | 0.00 | 0.00 | 0.00 | 88 | 1019.3 |
| 20260507213745 | 47 | 45 | 1.0 | 2.0 | 0.00 | 0.00 | 0.00 | 88 | 1019.4 |
| 20260507213600 | 47 | 45 | 1.0 | 2.0 | 0.00 | 0.00 | 0.00 | 88 | 1019.3 |
| 20260507213406 | 47 | 45 | 1.0 | 3.0 | 0.00 | 0.00 | 0.00 | 88 | 1019.4 |
| 20260507213218 | 47 | 45 | 1.0 | 4.0 | 0.00 | 0.00 | 0.00 | 88 | 1019.4 |
| 20260507213032 | 47 | 45 | 1.0 | 4.0 | 0.00 | 0.00 | 0.00 | 88 | 1019.3 |
| 20260507212849 | 47 | 68 | 1.0 | 3.0 | 0.00 | 0.00 | 0.00 | 89 | 1019.3 |
| 20260507212655 | 47 | 22 | 1.0 | 2.0 | 0.00 | 0.00 | 0.00 | 90 | 1019.4 |
| 20260507212455 | 47 | 22 | 1.0 | 2.0 | 0.00 | 0.00 | 0.00 | 91 | 1019.3 |
| 20260507212300 | 47 | 45 | 1.0 | 2.0 | 0.00 | 0.00 | 0.00 | 92 | 1019.3 |
| 20260507212252 | 47 | 0 | 0.0 | 2.0 | 0.00 | 0.00 | 0.00 | 92 | 1019.4 |
| 20260507212115 | 47 | 338 | 0.0 | 2.0 | 0.00 | 0.00 | 0.00 | 93 | 1019.3 |
| 20260507211925 | 47 | 270 | 0.0 | 2.0 | 0.00 | 0.00 | 0.00 | 93 | 1019.3 |
| 20260507211735 | 47 | 270 | 0.0 | 2.0 | 0.00 | 0.00 | 0.00 | 93 | 1019.3 |
| 20260507211549 | 47 | 270 | 0.0 | 2.0 | 0.00 | 0.00 | 0.00 | 94 | 1019.4 |
| 20260507211355 | 47 | 0 | 0.0 | 1.0 | 0.00 | 0.00 | 0.00 | 93 | 1019.3 |
| 20260507211209 | 47 | 0 | 0.0 | 1.0 | 0.00 | 0.00 | 0.00 | 93 | 1019.3 |
| 20260507211028 | 47 | 0 | 0.0 | 1.0 | 0.00 | 0.00 | 0.00 | 93 | 1019.4 |
| 20260507210830 | 47 | 0 | 0.0 | 0.0 | 0.00 | 0.00 | 0.00 | 93 | 1019.3 |
| 20260507210645 | 47 | 0 | 0.0 | 1.0 | 0.00 | 0.00 | 0.00 | 93 | 1019.3 |
| 20260507210502 | 48 | 0 | 0.0 | 1.0 | 0.00 | 0.00 | 0.00 | 93 | 1019.3 |
| 20260507210320 | 48 | 0 | 0.0 | 1.0 | 0.00 | 0.00 | 0.00 | 93 | 1019.3 |
| 20260507210125 | 48 | 0 | 0.0 | 0.0 | 0.00 | 0.00 | 0.00 | 93 | 1019.2 |
| 20260507205945 | 48 | 0 | 0.0 | 0.0 | 0.00 | 0.00 | 0.00 | 93 | 1019.3 |
| 20260507205804 | 48 | 0 | 0.0 | 0.0 | 0.00 | 0.00 | 0.00 | 93 | 1019.2 |
| 20260507205618 | 48 | 0 | 0.0 | 0.0 | 0.00 | 0.00 | 0.00 | 92 | 1019.3 |
| 20260507205429 | 48 | 270 | 0.0 | 0.0 | 0.00 | 0.00 | 0.00 | 92 | 1019.3 |
| 20260507205240 | 48 | 270 | 0.0 | 0.0 | 0.00 | 0.00 | 0.00 | 92 | 1019.3 |
| 20260507205055 | 48 | 270 | 0.0 | 0.0 | 0.00 | 0.00 | 0.00 | 92 | 1019.3 |
| 20260507204936 | 48 | 270 | 0.0 | 2.0 | 0.00 | 0.00 | 0.00 | 92 | 1019.2 |
| 20260507204901 | 48 | 270 | 0.0 | 2.0 | 0.00 | 0.00 | 0.00 | 92 | 1019.2 |
| 20260507204705 | 48 | 270 | 0.0 | 2.0 | 0.00 | 0.00 | 0.00 | 92 | 1019.2 |
| 20260507204507 | 48 | 0 | 0.0 | 1.0 | 0.00 | 0.00 | 0.00 | 92 | 1019.3 |
| 20260507204320 | 48 | 0 | 0.0 | 0.0 | 0.00 | 0.00 | 0.00 | 92 | 1019.3 |
| 20260507204125 | 48 | 0 | 0.0 | 0.0 | 0.00 | 0.00 | 0.00 | 91 | 1019.2 |
| 20260507203929 | 48 | 0 | 0.0 | 0.0 | 0.00 | 0.00 | 0.00 | 91 | 1019.1 |
| 20260507203729 | 48 | 0 | 0.0 | 0.0 | 0.00 | 0.00 | 0.00 | 91 | 1019.1 |
| 20260507203549 | 48 | 0 | 0.0 | 0.0 | 0.00 | 0.00 | 0.00 | 91 | 1019.1 |
| 20260507203408 | 48 | 0 | 0.0 | 0.0 | 0.00 | 0.00 | 0.00 | 91 | 1019.1 |
| 20260507203215 | 48 | 0 | 0.0 | 0.0 | 0.00 | 0.00 | 0.00 | 91 | 1019.0 |
| 20260507203103 | 48 | 0 | 0.0 | 0.0 | 0.00 | 0.00 | 0.00 | 90 | 1019.0 |
| 20260507203025 | 48 | 0 | 0.0 | 0.0 | 0.00 | 0.00 | 0.00 | 90 | 1019.1 |
| 20260507202835 | 49 | 0 | 0.0 | 0.0 | 0.00 | 0.00 | 0.00 | 90 | 1019.0 |
| 20260507202655 | 49 | 0 | 0.0 | 0.0 | 0.00 | 0.00 | 0.00 | 90 | 1019.0 |
| 20260507202500 | 49 | 0 | 0.0 | 0.0 | 0.00 | 0.00 | 0.00 | 90 | 1018.9 |
| 20260507202312 | 49 | 0 | 0.0 | 0.0 | 0.00 | 0.00 | 0.00 | 89 | 1018.9 |
| 20260507202135 | 49 | 0 | 0.0 | 0.0 | 0.00 | 0.00 | 0.00 | 89 | 1018.9 |
| 20260507201955 | 49 | 248 | 0.0 | 0.0 | 0.00 | 0.00 | 0.00 | 89 | 1018.8 |
| 20260507201758 | 49 | 248 | 0.0 | 0.0 | 0.00 | 0.00 | 0.00 | 89 | 1018.9 |
| 20260507201618 | 49 | 248 | 1.0 | 0.0 | 0.00 | 0.00 | 0.00 | 89 | 1018.8 |
| 20260507201435 | 49 | 248 | 1.0 | 3.0 | 0.00 | 0.00 | 0.00 | 89 | 1018.8 |
| 20260507201232 | 49 | 248 | 1.0 | 3.0 | 0.00 | 0.00 | 0.00 | 89 | 1018.8 |
| 20260507201048 | 49 | 248 | 2.0 | 3.0 | 0.00 | 0.00 | 0.00 | 89 | 1018.8 |
| 20260507200900 | 49 | 248 | 1.0 | 2.0 | 0.00 | 0.00 | 0.00 | 89 | 1018.7 |
| 20260507200710 | 49 | 248 | 2.0 | 6.0 | 0.00 | 0.00 | 0.00 | 88 | 1018.8 |
| 20260507200515 | 49 | 248 | 2.0 | 6.0 | 0.00 | 0.00 | 0.00 | 89 | 1018.8 |
| 20260507200321 | 49 | 248 | 1.0 | 6.0 | 0.00 | 0.00 | 0.00 | 88 | 1018.8 |
| 20260507200128 | 49 | 270 | 1.0 | 3.0 | 0.00 | 0.00 | 0.00 | 88 | 1018.8 |
| 20260507195948 | 49 | 270 | 1.0 | 2.0 | 0.00 | 0.00 | 0.00 | 89 | 1018.8 |
| 20260507195755 | 49 | 270 | 1.0 | 2.0 | 0.00 | 0.00 | 0.00 | 89 | 1018.8 |
| 20260507195652 | 49 | 270 | 0.0 | 2.0 | 0.00 | 0.00 | 0.00 | 89 | 1018.7 |
| 20260507195618 | 49 | 270 | 0.0 | 2.0 | 0.00 | 0.00 | 0.00 | 89 | 1018.7 |
| 20260507195433 | 49 | 270 | 0.0 | 2.0 | 0.00 | 0.00 | 0.00 | 89 | 1018.7 |
| 20260507195245 | 49 | 270 | 1.0 | 2.0 | 0.00 | 0.00 | 0.00 | 89 | 1018.7 |
| 20260507195048 | 49 | 270 | 0.0 | 2.0 | 0.00 | 0.00 | 0.00 | 89 | 1018.6 |
| 20260507194901 | 49 | 270 | 1.0 | 2.0 | 0.00 | 0.00 | 0.00 | 89 | 1018.6 |
| 20260507194709 | 49 | 270 | 1.0 | 2.0 | 0.00 | 0.00 | 0.00 | 89 | 1018.7 |
| 20260507194534 | 49 | 270 | 1.0 | 2.0 | 0.00 | 0.00 | 0.00 | 89 | 1018.6 |
| 20260507194345 | 49 | 270 | 0.0 | 2.0 | 0.00 | 0.00 | 0.00 | 89 | 1018.6 |
| 20260507194148 | 49 | 270 | 0.0 | 2.0 | 0.00 | 0.00 | 0.00 | 89 | 1018.6 |
| 20260507194005 | 49 | 270 | 0.0 | 2.0 | 0.00 | 0.00 | 0.00 | 89 | 1018.6 |
| 20260507193926 | 49 | 270 | 0.0 | 2.0 | 0.00 | 0.00 | 0.00 | 89 | 1018.6 |
| 20260507193808 | 49 | 270 | 0.0 | 2.0 | 0.00 | 0.00 | 0.00 | 89 | 1018.5 |
| 20260507193621 | 49 | 270 | 0.0 | 0.0 | 0.00 | 0.00 | 0.00 | 89 | 1018.5 |
| 20260507193440 | 49 | 270 | 0.0 | 0.0 | 0.00 | 0.00 | 0.00 | 88 | 1018.5 |
| 20260507193248 | 49 | 270 | 0.0 | 1.0 | 0.00 | 0.00 | 0.00 | 88 | 1018.5 |
| 20260507193108 | 49 | 270 | 0.0 | 2.0 | 0.00 | 0.00 | 0.00 | 88 | 1018.4 |
| 20260507192929 | 49 | 270 | 1.0 | 2.0 | 0.00 | 0.00 | 0.00 | 88 | 1018.5 |
| 20260507192745 | 49 | 270 | 1.0 | 2.0 | 0.00 | 0.00 | 0.00 | 88 | 1018.4 |
| 20260507192605 | 49 | 270 | 1.0 | 2.0 | 0.00 | 0.00 | 0.00 | 88 | 1018.4 |
| 20260507192419 | 49 | 270 | 1.0 | 2.0 | 0.00 | 0.00 | 0.00 | 87 | 1018.3 |
| 20260507192242 | 49 | 270 | 1.0 | 3.0 | 0.00 | 0.00 | 0.00 | 87 | 1018.3 |
| 20260507192105 | 49 | 270 | 2.0 | 3.0 | 0.00 | 0.00 | 0.00 | 87 | 1018.3 |
| 20260507191918 | 49 | 270 | 2.0 | 3.0 | 0.00 | 0.00 | 0.00 | 87 | 1018.3 |
| 20260507191727 | 49 | 270 | 2.0 | 3.0 | 0.00 | 0.00 | 0.00 | 87 | 1018.3 |
| 20260507191545 | 49 | 270 | 2.0 | 3.0 | 0.00 | 0.00 | 0.00 | 87 | 1018.3 |
| 20260507191345 | 49 | 270 | 2.0 | 4.0 | 0.00 | 0.00 | 0.00 | 87 | 1018.2 |
| 20260507191205 | 49 | 270 | 2.0 | 5.0 | 0.00 | 0.00 | 0.00 | 87 | 1018.2 |
| 20260507191014 | 49 | 270 | 2.0 | 5.0 | 0.00 | 0.00 | 0.00 | 87 | 1018.3 |
| 20260507190830 | 49 | 248 | 2.0 | 5.0 | 0.00 | 0.00 | 0.00 | 87 | 1018.2 |
| 20260507190635 | 49 | 292 | 2.0 | 3.0 | 0.00 | 0.00 | 0.00 | 87 | 1018.1 |
| 20260507190449 | 50 | 248 | 2.0 | 3.0 | 0.00 | 0.00 | 0.00 | 87 | 1018.2 |
| 20260507190422 | 50 | 248 | 2.0 | 3.0 | 0.00 | 0.00 | 0.00 | 87 | 1018.1 |
| 20260507190255 | 50 | 248 | 3.0 | 5.0 | 0.00 | 0.00 | 0.00 | 87 | 1018.1 |
| 20260507190105 | 50 | 248 | 3.0 | 5.0 | 0.00 | 0.00 | 0.00 | 87 | 1018.1 |
| 20260507185919 | 50 | 270 | 3.0 | 5.0 | 0.00 | 0.00 | 0.00 | 87 | 1018.1 |
| 20260507185729 | 50 | 248 | 2.0 | 5.0 | 0.00 | 0.00 | 0.00 | 87 | 1018.1 |
| 20260507185545 | 50 | 270 | 2.0 | 5.0 | 0.00 | 0.00 | 0.00 | 87 | 1018.0 |
| 20260507185344 | 50 | 225 | 2.0 | 5.0 | 0.00 | 0.00 | 0.00 | 87 | 1018.1 |
| 20260507185155 | 50 | 202 | 1.0 | 4.0 | 0.00 | 0.00 | 0.00 | 87 | 1018.1 |
| 20260507185009 | 50 | 292 | 1.0 | 2.0 | 0.00 | 0.00 | 0.00 | 87 | 1018.0 |
| 20260507184812 | 50 | 248 | 1.0 | 2.0 | 0.00 | 0.00 | 0.00 | 87 | 1018.0 |
| 20260507184625 | 50 | 248 | 1.0 | 3.0 | 0.00 | 0.00 | 0.00 | 87 | 1018.0 |
| 20260507184435 | 50 | 248 | 1.0 | 3.0 | 0.00 | 0.00 | 0.00 | 87 | 1017.9 |
| 20260507184248 | 50 | 248 | 1.0 | 3.0 | 0.00 | 0.00 | 0.00 | 87 | 1017.9 |
| 20260507184109 | 50 | 248 | 1.0 | 3.0 | 0.00 | 0.00 | 0.00 | 87 | 1017.9 |
| 20260507183918 | 50 | 248 | 1.0 | 3.0 | 0.00 | 0.00 | 0.00 | 87 | 1017.9 |
| 20260507183730 | 50 | 248 | 2.0 | 3.0 | 0.00 | 0.00 | 0.00 | 87 | 1017.9 |
| 20260507183535 | 50 | 248 | 2.0 | 3.0 | 0.00 | 0.00 | 0.00 | 87 | 1017.7 |
| 20260507183342 | 50 | 248 | 2.0 | 4.0 | 0.00 | 0.00 | 0.00 | 86 | 1017.8 |
| 20260507183206 | 50 | 248 | 2.0 | 4.0 | 0.00 | 0.00 | 0.00 | 86 | 1017.8 |
| 20260507183200 | 50 | 248 | 2.0 | 6.0 | 0.00 | 0.00 | 0.00 | 86 | 1017.8 |
| 20260507183019 | 50 | 248 | 2.0 | 6.0 | 0.00 | 0.00 | 0.00 | 86 | 1017.9 |
| 20260507182820 | 50 | 248 | 2.0 | 6.0 | 0.00 | 0.00 | 0.00 | 86 | 1017.8 |
| 20260507182622 | 50 | 248 | 2.0 | 6.0 | 0.00 | 0.00 | 0.00 | 86 | 1017.8 |
| 20260507182429 | 50 | 248 | 2.0 | 3.0 | 0.00 | 0.00 | 0.00 | 87 | 1017.8 |
| 20260507182235 | 50 | 270 | 2.0 | 3.0 | 0.00 | 0.00 | 0.00 | 86 | 1017.9 |
| 20260507182040 | 50 | 270 | 2.0 | 4.0 | 0.00 | 0.00 | 0.00 | 86 | 1017.9 |
| 20260507181849 | 50 | 270 | 2.0 | 3.0 | 0.00 | 0.00 | 0.00 | 86 | 1017.8 |
| 20260507181700 | 50 | 292 | 2.0 | 3.0 | 0.00 | 0.00 | 0.00 | 86 | 1017.8 |
| 20260507181500 | 50 | 292 | 2.0 | 4.0 | 0.00 | 0.00 | 0.00 | 86 | 1017.8 |
| 20260507181321 | 50 | 270 | 2.0 | 4.0 | 0.00 | 0.00 | 0.00 | 86 | 1017.7 |
| 20260507181300 | 50 | 270 | 2.0 | 4.0 | 0.00 | 0.00 | 0.00 | 86 | 1017.7 |
| 20260507181118 | 50 | 270 | 2.0 | 5.0 | 0.00 | 0.00 | 0.00 | 86 | 1017.8 |
| 20260507180935 | 50 | 225 | 2.0 | 5.0 | 0.00 | 0.00 | 0.00 | 86 | 1017.8 |
| 20260507180749 | 50 | 225 | 2.0 | 5.0 | 0.00 | 0.00 | 0.00 | 86 | 1017.7 |
| 20260507180609 | 50 | 225 | 2.0 | 5.0 | 0.00 | 0.00 | 0.00 | 86 | 1017.7 |
| 20260507180415 | 51 | 202 | 2.0 | 4.0 | 0.00 | 0.00 | 0.00 | 85 | 1017.8 |
| 20260507180225 | 51 | 248 | 3.0 | 4.0 | 0.00 | 0.00 | 0.00 | 85 | 1017.8 |
| 20260507180048 | 51 | 248 | 3.0 | 5.0 | 0.00 | 0.00 | 0.00 | 85 | 1017.7 |
| 20260507175900 | 51 | 248 | 3.0 | 5.0 | 0.00 | 0.00 | 0.00 | 85 | 1017.8 |
| 20260507175708 | 51 | 202 | 3.0 | 5.0 | 0.00 | 0.00 | 0.00 | 84 | 1017.8 |
| 20260507175525 | 51 | 225 | 3.0 | 6.0 | 0.00 | 0.00 | 0.00 | 84 | 1017.7 |
| 20260507175432 | 51 | 225 | 2.0 | 6.0 | 0.00 | 0.00 | 0.00 | 84 | 1017.7 |
| 20260507175349 | 51 | 225 | 2.0 | 6.0 | 0.00 | 0.00 | 0.00 | 84 | 1017.7 |
| 20260507175155 | 52 | 248 | 1.0 | 6.0 | 0.00 | 0.00 | 0.00 | 84 | 1017.7 |
| 20260507175005 | 52 | 292 | 1.0 | 5.0 | 0.00 | 0.00 | 0.00 | 83 | 1017.7 |
| 20260507174809 | 52 | 248 | 1.0 | 5.0 | 0.00 | 0.00 | 0.00 | 84 | 1017.6 |
| 20260507174630 | 52 | 202 | 0.0 | 2.0 | 0.00 | 0.00 | 0.00 | 83 | 1017.7 |
| 20260507174435 | 52 | 0 | 0.0 | 0.0 | 0.00 | 0.00 | 0.00 | 83 | 1017.6 |
| 20260507174249 | 52 | 0 | 0.0 | 0.0 | 0.00 | 0.00 | 0.00 | 82 | 1017.6 |
| 20260507174100 | 52 | 0 | 0.0 | 0.0 | 0.00 | 0.00 | 0.00 | 82 | 1017.5 |
| 20260507173909 | 52 | 0 | 0.0 | 0.0 | 0.00 | 0.00 | 0.00 | 81 | 1017.6 |
| 20260507173805 | 52 | 0 | 0.0 | 0.0 | 0.00 | 0.00 | 0.00 | 81 | 1017.6 |
| 20260507173716 | 52 | 0 | 0.0 | 0.0 | 0.00 | 0.00 | 0.00 | 81 | 1017.6 |
| 20260507173519 | 52 | 0 | 0.0 | 0.0 | 0.00 | 0.00 | 0.00 | 81 | 1017.5 |
| 20260507173344 | 52 | 0 | 0.0 | 0.0 | 0.00 | 0.00 | 0.00 | 81 | 1017.6 |
| 20260507173200 | 52 | 0 | 0.0 | 0.0 | 0.00 | 0.00 | 0.00 | 80 | 1017.5 |
| 20260507173000 | 52 | 0 | 0.0 | 0.0 | 0.00 | 0.00 | 0.00 | 80 | 1017.5 |
| 20260507172815 | 52 | 0 | 0.0 | 0.0 | 0.00 | 0.00 | 0.00 | 80 | 1017.5 |
| 20260507172623 | 52 | 0 | 0.0 | 0.0 | 0.00 | 0.00 | 0.00 | 81 | 1017.4 |
| 20260507172446 | 52 | 0 | 0.0 | 0.0 | 0.00 | 0.00 | 0.00 | 80 | 1017.4 |
| 20260507172310 | 52 | 0 | 0.0 | 0.0 | 0.00 | 0.00 | 0.00 | 80 | 1017.4 |
| 20260507172215 | 52 | 0 | 0.0 | 0.0 | 0.00 | 0.00 | 0.00 | 80 | 1017.4 |
| 20260507172115 | 52 | 0 | 0.0 | 0.0 | 0.00 | 0.00 | 0.00 | 80 | 1017.3 |
| 20260507171919 | 52 | 0 | 0.0 | 0.0 | 0.00 | 0.00 | 0.00 | 80 | 1017.4 |
| 20260507171725 | 52 | 0 | 0.0 | 0.0 | 0.00 | 0.00 | 0.00 | 79 | 1017.3 |
| 20260507171525 | 52 | 0 | 0.0 | 0.0 | 0.00 | 0.00 | 0.00 | 78 | 1017.3 |
| 20260507171345 | 52 | 0 | 0.0 | 0.0 | 0.00 | 0.00 | 0.00 | 77 | 1017.2 |
| 20260507171155 | 52 | 0 | 0.0 | 0.0 | 0.00 | 0.00 | 0.00 | 79 | 1017.2 |
| 20260507170955 | 52 | 0 | 0.0 | 0.0 | 0.00 | 0.00 | 0.00 | 78 | 1017.1 |
| 20260507170818 | 52 | 0 | 0.0 | 0.0 | 0.00 | 0.00 | 0.00 | 78 | 1017.2 |
| 20260507170640 | 52 | 90 | 0.0 | 0.0 | 0.00 | 0.00 | 0.00 | 78 | 1017.2 |
| 20260507170439 | 52 | 90 | 1.0 | 2.0 | 0.00 | 0.00 | 0.00 | 78 | 1017.2 |
| 20260507170402 | 52 | 90 | 1.0 | 2.0 | 0.00 | 0.00 | 0.00 | 78 | 1017.3 |
| 20260507170249 | 52 | 90 | 1.0 | 3.0 | 0.00 | 0.00 | 0.00 | 78 | 1017.2 |
| 20260507170100 | 52 | 90 | 1.0 | 4.0 | 0.00 | 0.00 | 0.00 | 78 | 1017.2 |
| 20260507165918 | 52 | 90 | 2.0 | 4.0 | 0.00 | 0.00 | 0.00 | 78 | 1017.2 |
| 20260507165740 | 52 | 90 | 2.0 | 4.0 | 0.00 | 0.00 | 0.00 | 77 | 1017.2 |
| 20260507165550 | 52 | 68 | 2.0 | 3.0 | 0.00 | 0.00 | 0.00 | 78 | 1017.1 |
| 20260507165407 | 52 | 68 | 2.0 | 2.0 | 0.00 | 0.00 | 0.00 | 77 | 1017.2 |
| 20260507165208 | 52 | 68 | 2.0 | 6.0 | 0.00 | 0.00 | 0.00 | 78 | 1017.2 |
| 20260507165018 | 52 | 68 | 2.0 | 6.0 | 0.00 | 0.00 | 0.00 | 77 | 1017.2 |
| 20260507164855 | 52 | 68 | 2.0 | 6.0 | 0.00 | 0.00 | 0.00 | 77 | 1017.2 |
| 20260507164825 | 52 | 68 | 2.0 | 6.0 | 0.00 | 0.00 | 0.00 | 77 | 1017.1 |
| 20260507164645 | 52 | 68 | 2.0 | 4.0 | 0.00 | 0.00 | 0.00 | 77 | 1017.2 |
| 20260507164505 | 52 | 68 | 2.0 | 4.0 | 0.00 | 0.00 | 0.00 | 77 | 1017.1 |
| 20260507164320 | 52 | 68 | 2.0 | 4.0 | 0.00 | 0.00 | 0.00 | 77 | 1017.2 |
| 20260507164139 | 52 | 68 | 2.0 | 4.0 | 0.00 | 0.00 | 0.00 | 77 | 1017.1 |
| 20260507164000 | 52 | 68 | 2.0 | 3.0 | 0.00 | 0.00 | 0.00 | 77 | 1017.1 |
| 20260507163810 | 52 | 68 | 2.0 | 5.0 | 0.00 | 0.00 | 0.00 | 76 | 1017.0 |
| 20260507163620 | 52 | 68 | 2.0 | 5.0 | 0.00 | 0.00 | 0.00 | 77 | 1017.1 |
| 20260507163441 | 52 | 68 | 2.0 | 5.0 | 0.00 | 0.00 | 0.00 | 77 | 1017.1 |
| 20260507163306 | 52 | 68 | 2.0 | 5.0 | 0.00 | 0.00 | 0.00 | 76 | 1017.1 |
| 20260507163256 | 52 | 68 | 2.0 | 5.0 | 0.00 | 0.00 | 0.00 | 76 | 1017.1 |
| 20260507163105 | 52 | 68 | 2.0 | 3.0 | 0.00 | 0.00 | 0.00 | 77 | 1017.1 |
| 20260507162920 | 52 | 68 | 2.0 | 3.0 | 0.00 | 0.00 | 0.00 | 77 | 1017.1 |
| 20260507162725 | 52 | 68 | 2.0 | 5.0 | 0.00 | 0.00 | 0.00 | 78 | 1017.1 |
| 20260507162524 | 53 | 68 | 2.0 | 5.0 | 0.00 | 0.00 | 0.00 | 77 | 1017.1 |
| 20260507162344 | 53 | 68 | 2.0 | 5.0 | 0.00 | 0.00 | 0.00 | 77 | 1017.1 |
| 20260507162205 | 53 | 68 | 2.0 | 2.0 | 0.00 | 0.00 | 0.00 | 77 | 1017.1 |
| 20260507162025 | 53 | 68 | 2.0 | 2.0 | 0.00 | 0.00 | 0.00 | 77 | 1017.0 |
| 20260507161847 | 53 | 68 | 2.0 | 5.0 | 0.00 | 0.00 | 0.00 | 77 | 1017.0 |
| 20260507161755 | 53 | 68 | 2.0 | 5.0 | 0.00 | 0.00 | 0.00 | 77 | 1017.0 |
| 20260507161705 | 53 | 68 | 2.0 | 5.0 | 0.00 | 0.00 | 0.00 | 77 | 1017.1 |
| 20260507161515 | 53 | 68 | 3.0 | 5.0 | 0.00 | 0.00 | 0.00 | 77 | 1017.1 |
| 20260507161325 | 53 | 68 | 3.0 | 5.0 | 0.00 | 0.00 | 0.00 | 76 | 1017.0 |
| 20260507161143 | 53 | 90 | 2.0 | 4.0 | 0.00 | 0.00 | 0.00 | 76 | 1017.1 |
| 20260507160955 | 53 | 68 | 2.0 | 3.0 | 0.00 | 0.00 | 0.00 | 77 | 1017.0 |
| 20260507160809 | 53 | 68 | 2.0 | 4.0 | 0.00 | 0.00 | 0.00 | 77 | 1017.0 |
| 20260507160629 | 53 | 68 | 2.0 | 5.0 | 0.00 | 0.00 | 0.00 | 76 | 1017.0 |
| 20260507160440 | 53 | 68 | 2.0 | 5.0 | 0.00 | 0.00 | 0.00 | 76 | 1017.1 |
| 20260507160240 | 53 | 68 | 2.0 | 5.0 | 0.00 | 0.00 | 0.00 | 76 | 1017.0 |
| 20260507160106 | 53 | 68 | 2.0 | 6.0 | 0.00 | 0.00 | 0.00 | 76 | 1017.0 |
| 20260507160045 | 53 | 68 | 2.0 | 6.0 | 0.00 | 0.00 | 0.00 | 76 | 1017.0 |
| 20260507155844 | 53 | 68 | 2.0 | 6.0 | 0.00 | 0.00 | 0.00 | 76 | 1017.0 |
| 20260507155655 | 53 | 68 | 2.0 | 6.0 | 0.00 | 0.00 | 0.00 | 76 | 1017.1 |
| 20260507155509 | 53 | 68 | 2.0 | 5.0 | 0.00 | 0.00 | 0.00 | 77 | 1017.0 |
| 20260507155309 | 53 | 90 | 2.0 | 3.0 | 0.00 | 0.00 | 0.00 | 77 | 1017.0 |
| 20260507155109 | 53 | 90 | 2.0 | 5.0 | 0.00 | 0.00 | 0.00 | 77 | 1016.9 |
| 20260507154922 | 53 | 90 | 2.0 | 6.0 | 0.00 | 0.00 | 0.00 | 77 | 1017.0 |
| 20260507154740 | 53 | 90 | 2.0 | 6.0 | 0.00 | 0.00 | 0.00 | 77 | 1016.9 |
| 20260507154600 | 53 | 68 | 2.0 | 5.0 | 0.00 | 0.00 | 0.00 | 76 | 1017.0 |
| 20260507154457 | 53 | 68 | 2.0 | 5.0 | 0.00 | 0.00 | 0.00 | 76 | 1017.0 |
| 20260507154415 | 53 | 90 | 2.0 | 5.0 | 0.00 | 0.00 | 0.00 | 76 | 1016.9 |
| 20260507154230 | 53 | 90 | 2.0 | 5.0 | 0.00 | 0.00 | 0.00 | 76 | 1016.9 |
| 20260507154028 | 53 | 90 | 3.0 | 4.0 | 0.00 | 0.00 | 0.00 | 75 | 1016.9 |
| 20260507153840 | 53 | 90 | 2.0 | 5.0 | 0.00 | 0.00 | 0.00 | 76 | 1016.8 |
| 20260507153645 | 53 | 90 | 2.0 | 6.0 | 0.00 | 0.00 | 0.00 | 76 | 1016.9 |
| 20260507153448 | 53 | 90 | 2.0 | 6.0 | 0.00 | 0.00 | 0.00 | 76 | 1016.9 |
| 20260507153254 | 53 | 45 | 2.0 | 5.0 | 0.00 | 0.00 | 0.00 | 74 | 1016.8 |
| 20260507153100 | 53 | 68 | 2.0 | 4.0 | 0.00 | 0.00 | 0.00 | 76 | 1016.9 |
| 20260507152900 | 53 | 68 | 2.0 | 5.0 | 0.00 | 0.00 | 0.00 | 75 | 1016.8 |
| 20260507152848 | 53 | 68 | 2.0 | 5.0 | 0.00 | 0.00 | 0.00 | 76 | 1016.8 |
| 20260507152704 | 53 | 68 | 2.0 | 5.0 | 0.00 | 0.00 | 0.00 | 76 | 1016.8 |
| 20260507152520 | 53 | 68 | 2.0 | 5.0 | 0.00 | 0.00 | 0.00 | 75 | 1016.8 |
| 20260507152330 | 53 | 90 | 2.0 | 3.0 | 0.00 | 0.00 | 0.00 | 76 | 1016.7 |
| 20260507152148 | 53 | 90 | 2.0 | 4.0 | 0.00 | 0.00 | 0.00 | 76 | 1016.7 |
| 20260507152005 | 53 | 90 | 2.0 | 5.0 | 0.00 | 0.00 | 0.00 | 76 | 1016.7 |
| 20260507151820 | 53 | 90 | 2.0 | 5.0 | 0.00 | 0.00 | 0.00 | 76 | 1016.8 |
| 20260507151629 | 53 | 112 | 2.0 | 5.0 | 0.00 | 0.00 | 0.00 | 76 | 1016.7 |
| 20260507151440 | 53 | 158 | 2.0 | 5.0 | 0.00 | 0.00 | 0.00 | 75 | 1016.7 |
| 20260507151240 | 53 | 90 | 2.0 | 5.0 | 0.00 | 0.00 | 0.00 | 76 | 1016.7 |
| 20260507151052 | 53 | 90 | 2.0 | 3.0 | 0.00 | 0.00 | 0.00 | 76 | 1016.7 |
| 20260507151003 | 53 | 90 | 2.0 | 3.0 | 0.00 | 0.00 | 0.00 | 76 | 1016.7 |
| 20260507150905 | 53 | 90 | 2.0 | 3.0 | 0.00 | 0.00 | 0.00 | 76 | 1016.7 |
| 20260507150715 | 52 | 90 | 2.0 | 6.0 | 0.00 | 0.00 | 0.00 | 77 | 1016.6 |
| 20260507150519 | 52 | 90 | 2.0 | 6.0 | 0.00 | 0.00 | 0.00 | 77 | 1016.7 |
| 20260507150333 | 52 | 90 | 2.0 | 6.0 | 0.00 | 0.00 | 0.00 | 76 | 1016.5 |
| 20260507150145 | 52 | 112 | 2.0 | 4.0 | 0.00 | 0.00 | 0.00 | 77 | 1016.6 |
| 20260507145955 | 52 | 112 | 3.0 | 5.0 | 0.00 | 0.00 | 0.00 | 76 | 1016.5 |
| 20260507145800 | 52 | 112 | 3.0 | 5.0 | 0.00 | 0.00 | 0.00 | 76 | 1016.6 |
| 20260507145602 | 52 | 158 | 3.0 | 5.0 | 0.00 | 0.00 | 0.00 | 76 | 1016.6 |
| 20260507145425 | 53 | 68 | 3.0 | 5.0 | 0.00 | 0.00 | 0.00 | 77 | 1016.5 |
| 20260507145223 | 53 | 68 | 3.0 | 5.0 | 0.00 | 0.00 | 0.00 | 77 | 1016.5 |
| 20260507145055 | 53 | 90 | 3.0 | 6.0 | 0.00 | 0.00 | 0.00 | 76 | 1016.4 |
| 20260507144908 | 53 | 90 | 3.0 | 5.0 | 0.00 | 0.00 | 0.00 | 76 | 1016.5 |
| 20260507144710 | 53 | 68 | 2.0 | 5.0 | 0.00 | 0.00 | 0.00 | 76 | 1016.5 |
| 20260507144535 | 53 | 112 | 2.0 | 5.0 | 0.00 | 0.00 | 0.00 | 75 | 1016.5 |
| 20260507144341 | 53 | 45 | 2.0 | 5.0 | 0.00 | 0.00 | 0.00 | 76 | 1016.5 |
| 20260507144148 | 53 | 90 | 2.0 | 5.0 | 0.00 | 0.00 | 0.00 | 74 | 1016.5 |
| 20260507144005 | 53 | 68 | 1.0 | 5.0 | 0.00 | 0.00 | 0.00 | 74 | 1016.5 |
| 20260507143815 | 53 | 45 | 1.0 | 3.0 | 0.00 | 0.00 | 0.00 | 74 | 1016.5 |
| 20260507143634 | 53 | 45 | 1.0 | 3.0 | 0.00 | 0.00 | 0.00 | 74 | 1016.5 |
| 20260507143438 | 53 | 45 | 1.0 | 3.0 | 0.00 | 0.00 | 0.00 | 74 | 1016.4 |
| 20260507143253 | 53 | 45 | 1.0 | 3.0 | 0.00 | 0.00 | 0.00 | 74 | 1016.5 |
| 20260507143109 | 53 | 45 | 1.0 | 3.0 | 0.00 | 0.00 | 0.00 | 74 | 1016.4 |
| 20260507142918 | 53 | 45 | 1.0 | 5.0 | 0.00 | 0.00 | 0.00 | 73 | 1016.4 |
| 20260507142733 | 53 | 45 | 1.0 | 5.0 | 0.00 | 0.00 | 0.00 | 74 | 1016.4 |
| 20260507142534 | 53 | 22 | 1.0 | 2.0 | 0.00 | 0.00 | 0.00 | 74 | 1016.4 |
| 20260507142340 | 53 | 22 | 1.0 | 4.0 | 0.00 | 0.00 | 0.00 | 73 | 1016.4 |
| 20260507142149 | 53 | 22 | 2.0 | 5.0 | 0.00 | 0.00 | 0.00 | 75 | 1016.4 |
| 20260507141954 | 53 | 22 | 2.0 | 5.0 | 0.00 | 0.00 | 0.00 | 74 | 1016.4 |
| 20260507141855 | 53 | 22 | 2.0 | 5.0 | 0.00 | 0.00 | 0.00 | 74 | 1016.4 |
| 20260507141805 | 53 | 22 | 1.0 | 5.0 | 0.00 | 0.00 | 0.00 | 74 | 1016.5 |
| 20260507141608 | 53 | 0 | 1.0 | 2.0 | 0.00 | 0.00 | 0.00 | 74 | 1016.5 |
| 20260507141425 | 53 | 0 | 1.0 | 2.0 | 0.00 | 0.00 | 0.00 | 75 | 1016.5 |
| 20260507141231 | 53 | 338 | 1.0 | 2.0 | 0.00 | 0.00 | 0.00 | 76 | 1016.4 |
| 20260507141055 | 53 | 338 | 1.0 | 4.0 | 0.00 | 0.00 | 0.00 | 75 | 1016.4 |
| 20260507140855 | 53 | 338 | 1.0 | 4.0 | 0.00 | 0.00 | 0.00 | 76 | 1016.4 |
| 20260507140708 | 53 | 338 | 1.0 | 4.0 | 0.00 | 0.00 | 0.00 | 76 | 1016.4 |
| 20260507140519 | 53 | 338 | 1.0 | 2.0 | 0.00 | 0.00 | 0.00 | 76 | 1016.4 |
| 20260507140325 | 53 | 338 | 1.0 | 2.0 | 0.00 | 0.00 | 0.00 | 75 | 1016.4 |
| 20260507140139 | 53 | 338 | 1.0 | 2.0 | 0.00 | 0.00 | 0.00 | 75 | 1016.4 |
| 20260507140000 | 53 | 338 | 1.0 | 2.0 | 0.00 | 0.00 | 0.00 | 75 | 1016.4 |
| 20260507135820 | 53 | 45 | 1.0 | 2.0 | 0.00 | 0.00 | 0.00 | 75 | 1016.3 |
| 20260507135620 | 53 | 45 | 1.0 | 3.0 | 0.00 | 0.00 | 0.00 | 76 | 1016.3 |
| 20260507135435 | 53 | 45 | 2.0 | 3.0 | 0.00 | 0.00 | 0.00 | 76 | 1016.3 |
| 20260507135245 | 53 | 45 | 2.0 | 3.0 | 0.00 | 0.00 | 0.00 | 76 | 1016.3 |
| 20260507135105 | 53 | 45 | 2.0 | 6.0 | 0.00 | 0.00 | 0.00 | 75 | 1016.3 |
| 20260507134905 | 53 | 45 | 2.0 | 6.0 | 0.00 | 0.00 | 0.00 | 75 | 1016.2 |
| 20260507134710 | 53 | 22 | 2.0 | 3.0 | 0.00 | 0.00 | 0.00 | 74 | 1016.2 |
| 20260507134602 | 53 | 22 | 2.0 | 3.0 | 0.00 | 0.00 | 0.00 | 75 | 1016.2 |
| 20260507134515 | 53 | 68 | 2.0 | 3.0 | 0.00 | 0.00 | 0.00 | 76 | 1016.2 |
| 20260507134314 | 53 | 68 | 3.0 | 5.0 | 0.00 | 0.00 | 0.00 | 76 | 1016.2 |
| 20260507134125 | 53 | 45 | 3.0 | 5.0 | 0.00 | 0.00 | 0.00 | 76 | 1016.2 |
| 20260507133925 | 53 | 22 | 3.0 | 6.0 | 0.00 | 0.00 | 0.00 | 74 | 1016.2 |
| 20260507133744 | 53 | 45 | 3.0 | 6.0 | 0.00 | 0.00 | 0.00 | 74 | 1016.2 |
| 20260507133606 | 53 | 22 | 4.0 | 6.0 | 0.00 | 0.00 | 0.00 | 74 | 1016.2 |
| 20260507133409 | 53 | 45 | 3.0 | 5.0 | 0.00 | 0.00 | 0.00 | 75 | 1016.1 |
| 20260507133210 | 53 | 45 | 4.0 | 6.0 | 0.00 | 0.00 | 0.00 | 75 | 1016.3 |
| 20260507133011 | 53 | 68 | 3.0 | 6.0 | 0.00 | 0.00 | 0.00 | 74 | 1016.2 |
| 20260507132906 | 53 | 68 | 3.0 | 6.0 | 0.00 | 0.00 | 0.00 | 74 | 1016.2 |
| 20260507132820 | 53 | 68 | 2.0 | 6.0 | 0.00 | 0.00 | 0.00 | 73 | 1016.2 |
| 20260507132623 | 53 | 90 | 2.0 | 6.0 | 0.00 | 0.00 | 0.00 | 73 | 1016.2 |
| 20260507132444 | 53 | 90 | 2.0 | 5.0 | 0.00 | 0.00 | 0.00 | 72 | 1016.2 |
| 20260507132245 | 53 | 45 | 2.0 | 6.0 | 0.00 | 0.00 | 0.00 | 73 | 1016.2 |
| 20260507132108 | 53 | 68 | 2.0 | 6.0 | 0.00 | 0.00 | 0.00 | 73 | 1016.1 |
| 20260507131925 | 53 | 90 | 2.0 | 6.0 | 0.00 | 0.00 | 0.00 | 74 | 1016.2 |
| 20260507131735 | 53 | 90 | 2.0 | 6.0 | 0.00 | 0.00 | 0.00 | 74 | 1016.1 |
| 20260507131544 | 53 | 248 | 3.0 | 3.0 | 0.00 | 0.00 | 0.00 | 74 | 1016.1 |
| 20260507131409 | 52 | 68 | 3.0 | 7.0 | 0.00 | 0.00 | 0.00 | 75 | 1016.2 |
| 20260507131302 | 52 | 68 | 3.0 | 7.0 | 0.00 | 0.00 | 0.00 | 75 | 1016.2 |
| 20260507131220 | 52 | 68 | 3.0 | 7.0 | 0.00 | 0.00 | 0.00 | 75 | 1016.2 |
| 20260507131045 | 52 | 90 | 3.0 | 7.0 | 0.00 | 0.00 | 0.00 | 76 | 1016.1 |
| 20260507130907 | 53 | 0 | 4.0 | 7.0 | 0.00 | 0.00 | 0.00 | 75 | 1016.2 |
| 20260507130715 | 53 | 22 | 4.0 | 6.0 | 0.00 | 0.02 | 0.00 | 75 | 1016.1 |
| 20260507130535 | 53 | 45 | 4.0 | 6.0 | 0.00 | 0.02 | 0.00 | 75 | 1016.2 |
| 20260507130353 | 52 | 45 | 3.0 | 5.0 | 0.00 | 0.02 | 0.00 | 74 | 1016.1 |
| 20260507130215 | 52 | 45 | 3.0 | 6.0 | 0.00 | 0.02 | 0.00 | 75 | 1016.1 |
| 20260507130027 | 52 | 45 | 3.0 | 6.0 | 0.00 | 0.02 | 0.00 | 75 | 1016.1 |
| 20260507125840 | 52 | 68 | 2.0 | 6.0 | 0.00 | 0.02 | 0.00 | 76 | 1016.1 |
| 20260507125650 | 52 | 45 | 2.0 | 4.0 | 0.00 | 0.02 | 0.00 | 74 | 1016.2 |
| 20260507125506 | 52 | 22 | 3.0 | 6.0 | 0.00 | 0.02 | 0.00 | 75 | 1016.1 |
| 20260507125407 | 52 | 45 | 3.0 | 6.0 | 0.00 | 0.02 | 0.00 | 76 | 1016.0 |
| 20260507125328 | 51 | 45 | 3.0 | 6.0 | 0.00 | 0.02 | 0.00 | 76 | 1016.0 |
| 20260507125148 | 51 | 45 | 4.0 | 7.0 | 0.00 | 0.02 | 0.00 | 76 | 1016.0 |
| 20260507124955 | 51 | 68 | 4.0 | 7.0 | 0.00 | 0.02 | 0.00 | 78 | 1016.1 |
| 20260507124803 | 52 | 68 | 5.0 | 8.0 | 0.00 | 0.02 | 0.00 | 77 | 1016.0 |
| 20260507124624 | 52 | 68 | 4.0 | 8.0 | 0.00 | 0.02 | 0.00 | 76 | 1016.0 |
| 20260507124440 | 52 | 45 | 4.0 | 8.0 | 0.00 | 0.02 | 0.00 | 76 | 1016.0 |
| 20260507124248 | 52 | 90 | 4.0 | 8.0 | 0.00 | 0.02 | 0.00 | 76 | 1016.0 |
| 20260507124103 | 52 | 68 | 3.0 | 7.0 | 0.00 | 0.02 | 0.00 | 77 | 1016.0 |
| 20260507123905 | 52 | 68 | 3.0 | 7.0 | 0.00 | 0.02 | 0.00 | 75 | 1016.0 |
| 20260507123720 | 52 | 90 | 2.0 | 6.0 | 0.00 | 0.02 | 0.00 | 75 | 1016.0 |
| 20260507123606 | 52 | 22 | 2.0 | 4.0 | 0.00 | 0.02 | 0.00 | 75 | 1016.0 |
| 20260507123525 | 52 | 22 | 2.0 | 4.0 | 0.00 | 0.02 | 0.00 | 76 | 1016.0 |
| 20260507123327 | 52 | 22 | 4.0 | 9.0 | 0.00 | 0.02 | 0.00 | 76 | 1016.0 |
| 20260507123149 | 52 | 22 | 4.0 | 9.0 | 0.00 | 0.02 | 0.00 | 75 | 1016.0 |
| 20260507123004 | 52 | 90 | 4.0 | 10.0 | 0.00 | 0.02 | 0.00 | 76 | 1016.0 |
| 20260507122820 | 51 | 22 | 4.0 | 10.0 | 0.00 | 0.02 | 0.00 | 76 | 1016.0 |
| 20260507122644 | 51 | 90 | 4.0 | 10.0 | 0.00 | 0.02 | 0.00 | 76 | 1015.9 |
| 20260507122445 | 51 | 68 | 3.0 | 9.0 | 0.00 | 0.02 | 0.00 | 76 | 1016.0 |
| 20260507122250 | 51 | 45 | 3.0 | 8.0 | 0.00 | 0.02 | 0.00 | 76 | 1016.0 |
| 20260507122100 | 51 | 45 | 4.0 | 8.0 | 0.00 | 0.02 | 0.00 | 77 | 1016.0 |
| 20260507122033 | 51 | 68 | 4.0 | 6.0 | 0.00 | 0.02 | 0.00 | 77 | 1015.9 |
| 20260507121918 | 51 | 68 | 5.0 | 6.0 | 0.00 | 0.02 | 0.00 | 76 | 1016.0 |
| 20260507121725 | 51 | 68 | 5.0 | 8.0 | 0.00 | 0.02 | 0.00 | 76 | 1015.9 |
| 20260507121545 | 51 | 90 | 5.0 | 9.0 | 0.00 | 0.02 | 0.00 | 78 | 1016.0 |
| 20260507121353 | 51 | 45 | 5.0 | 9.0 | 0.00 | 0.02 | 0.00 | 77 | 1016.0 |
| 20260507121200 | 51 | 90 | 5.0 | 9.0 | 0.00 | 0.02 | 0.00 | 77 | 1016.0 |
| 20260507121007 | 51 | 68 | 4.0 | 10.0 | 0.00 | 0.02 | 0.00 | 76 | 1015.9 |
| 20260507120815 | 51 | 45 | 3.0 | 10.0 | 0.00 | 0.02 | 0.00 | 76 | 1015.9 |
| 20260507120619 | 51 | 68 | 3.0 | 10.0 | 0.00 | 0.02 | 0.00 | 77 | 1015.9 |
| 20260507120445 | 51 | 68 | 3.0 | 5.0 | 0.00 | 0.02 | 0.00 | 78 | 1016.0 |
| 20260507120423 | 51 | 68 | 3.0 | 5.0 | 0.00 | 0.02 | 0.00 | 77 | 1015.9 |
| 20260507120224 | 51 | 68 | 3.0 | 7.0 | 0.00 | 0.02 | 0.00 | 77 | 1015.9 |
| 20260507120040 | 51 | 68 | 4.0 | 7.0 | 0.00 | 0.02 | 0.00 | 77 | 1015.9 |
| 20260507115843 | 51 | 45 | 4.0 | 7.0 | 0.00 | 0.02 | 0.00 | 77 | 1015.9 |
| 20260507115700 | 51 | 90 | 4.0 | 8.0 | 0.00 | 0.02 | 0.00 | 77 | 1015.9 |
| 20260507115515 | 51 | 68 | 4.0 | 8.0 | 0.00 | 0.02 | 0.00 | 77 | 1015.9 |
| 20260507115315 | 51 | 68 | 5.0 | 8.0 | 0.00 | 0.02 | 0.00 | 77 | 1016.0 |
| 20260507115128 | 51 | 90 | 5.0 | 8.0 | 0.00 | 0.02 | 0.00 | 77 | 1015.9 |
| 20260507114935 | 51 | 68 | 4.0 | 8.0 | 0.00 | 0.02 | 0.00 | 77 | 1015.9 |
| 20260507114745 | 51 | 68 | 5.0 | 8.0 | 0.00 | 0.02 | 0.00 | 77 | 1015.9 |
| 20260507114549 | 51 | 45 | 5.0 | 7.0 | 0.00 | 0.02 | 0.00 | 77 | 1015.9 |
| 20260507114356 | 51 | 45 | 5.0 | 9.0 | 0.00 | 0.02 | 0.00 | 76 | 1015.9 |
| 20260507114200 | 50 | 90 | 4.0 | 12.0 | 0.00 | 0.02 | 0.00 | 76 | 1015.8 |
| 20260507114008 | 50 | 90 | 4.0 | 12.0 | 0.00 | 0.02 | 0.00 | 76 | 1015.9 |
| 20260507113820 | 50 | 45 | 4.0 | 10.0 | 0.00 | 0.02 | 0.00 | 77 | 1015.9 |
| 20260507113645 | 50 | 90 | 4.0 | 8.0 | 0.00 | 0.02 | 0.00 | 78 | 1015.8 |
| 20260507113500 | 50 | 68 | 4.0 | 8.0 | 0.00 | 0.02 | 0.00 | 76 | 1015.8 |
| 20260507113320 | 50 | 68 | 4.0 | 6.0 | 0.00 | 0.02 | 0.00 | 77 | 1015.8 |
| 20260507113132 | 50 | 45 | 4.0 | 12.0 | 0.00 | 0.02 | 0.00 | 78 | 1015.9 |
| 20260507112950 | 50 | 90 | 5.0 | 12.0 | 0.00 | 0.02 | 0.00 | 78 | 1015.8 |
| 20260507112808 | 50 | 22 | 5.0 | 12.0 | 0.00 | 0.02 | 0.00 | 78 | 1015.8 |
| 20260507112730 | 50 | 90 | 5.0 | 9.0 | 0.00 | 0.02 | 0.00 | 78 | 1015.8 |
| 20260507112615 | 50 | 112 | 5.0 | 9.0 | 0.00 | 0.02 | 0.00 | 79 | 1015.8 |
| 20260507112435 | 50 | 45 | 4.0 | 8.0 | 0.00 | 0.02 | 0.00 | 78 | 1015.8 |
| 20260507112250 | 50 | 68 | 4.0 | 10.0 | 0.00 | 0.02 | 0.00 | 78 | 1015.8 |
| 20260507112105 | 50 | 68 | 4.0 | 13.0 | 0.00 | 0.02 | 0.00 | 78 | 1015.8 |
| 20260507111905 | 50 | 112 | 4.0 | 13.0 | 0.00 | 0.02 | 0.00 | 78 | 1015.7 |
| 20260507111712 | 50 | 45 | 5.0 | 13.0 | 0.00 | 0.03 | 0.00 | 79 | 1015.8 |
| 20260507111535 | 49 | 22 | 5.0 | 10.0 | 0.00 | 0.03 | 0.00 | 79 | 1015.8 |
| 20260507111333 | 49 | 45 | 5.0 | 11.0 | 0.00 | 0.03 | 0.00 | 79 | 1015.8 |
| 20260507111155 | 49 | 22 | 5.0 | 11.0 | 0.00 | 0.03 | 0.00 | 79 | 1015.7 |
| 20260507111132 | 49 | 112 | 5.0 | 11.0 | 0.00 | 0.03 | 0.00 | 79 | 1015.7 |
| 20260507111015 | 49 | 22 | 5.0 | 11.0 | 0.00 | 0.03 | 0.00 | 80 | 1015.8 |
| 20260507110829 | 49 | 90 | 4.0 | 10.0 | 0.00 | 0.03 | 0.00 | 80 | 1015.7 |
| 20260507110639 | 49 | 22 | 4.0 | 6.0 | 0.00 | 0.03 | 0.00 | 80 | 1015.8 |
| 20260507110440 | 49 | 68 | 4.0 | 7.0 | 0.00 | 0.03 | 0.00 | 81 | 1015.8 |
| 20260507110300 | 49 | 45 | 4.0 | 8.0 | 0.00 | 0.03 | 0.00 | 81 | 1015.8 |
| 20260507110100 | 49 | 45 | 4.0 | 8.0 | 0.00 | 0.03 | 0.00 | 81 | 1015.7 |
| 20260507105925 | 49 | 45 | 5.0 | 9.0 | 0.00 | 0.03 | 0.00 | 81 | 1015.7 |
| 20260507105746 | 49 | 45 | 5.0 | 10.0 | 0.00 | 0.03 | 0.00 | 81 | 1015.8 |
| 20260507105546 | 49 | 68 | 4.0 | 10.0 | 0.00 | 0.03 | 0.00 | 81 | 1015.8 |
| 20260507105455 | 49 | 0 | 4.0 | 10.0 | 0.00 | 0.03 | 0.00 | 81 | 1015.7 |
| 20260507105348 | 49 | 68 | 4.0 | 10.0 | 0.00 | 0.03 | 0.00 | 81 | 1015.8 |
| 20260507105200 | 49 | 338 | 4.0 | 8.0 | 0.00 | 0.03 | 0.00 | 81 | 1015.8 |
| 20260507105002 | 49 | 22 | 4.0 | 8.0 | 0.00 | 0.03 | 0.00 | 82 | 1015.7 |
| 20260507104824 | 49 | 22 | 4.0 | 6.0 | 0.00 | 0.03 | 0.00 | 82 | 1015.7 |
| 20260507104629 | 49 | 68 | 3.0 | 6.0 | 0.00 | 0.03 | 0.00 | 82 | 1015.7 |
| 20260507104445 | 49 | 68 | 3.0 | 10.0 | 0.00 | 0.03 | 0.00 | 81 | 1015.6 |
| 20260507104249 | 49 | 112 | 3.0 | 10.0 | 0.00 | 0.03 | 0.00 | 82 | 1015.6 |
| 20260507104109 | 49 | 45 | 3.0 | 10.0 | 0.00 | 0.03 | 0.00 | 82 | 1015.7 |
| 20260507103925 | 48 | 45 | 3.0 | 6.0 | 0.00 | 0.03 | 0.00 | 83 | 1015.7 |
| 20260507103729 | 48 | 90 | 4.0 | 9.0 | 0.00 | 0.03 | 0.00 | 83 | 1015.7 |
| 20260507103603 | 48 | 90 | 4.0 | 9.0 | 0.00 | 0.03 | 0.00 | 83 | 1015.7 |
| 20260507103535 | 48 | 90 | 4.0 | 9.0 | 0.00 | 0.03 | 0.00 | 83 | 1015.7 |
| 20260507103347 | 48 | 68 | 3.0 | 9.0 | 0.00 | 0.05 | 0.00 | 82 | 1015.6 |
| 20260507103211 | 48 | 0 | 3.0 | 10.0 | 0.00 | 0.05 | 0.00 | 83 | 1015.7 |
| 20260507103036 | 48 | 22 | 3.0 | 10.0 | 0.00 | 0.05 | 0.00 | 83 | 1015.6 |
| 20260507102845 | 48 | 22 | 4.0 | 10.0 | 0.00 | 0.05 | 0.00 | 83 | 1015.6 |
| 20260507102645 | 48 | 0 | 3.0 | 6.0 | 0.00 | 0.05 | 0.00 | 83 | 1015.6 |
| 20260507102452 | 48 | 45 | 3.0 | 6.0 | 0.00 | 0.05 | 0.00 | 83 | 1015.6 |
| 20260507102258 | 48 | 22 | 3.0 | 9.0 | 0.00 | 0.06 | 0.00 | 83 | 1015.6 |
| 20260507102115 | 48 | 68 | 3.0 | 9.0 | 0.00 | 0.06 | 0.00 | 84 | 1015.6 |
| 20260507101935 | 47 | 22 | 3.0 | 6.0 | 0.00 | 0.06 | 0.00 | 84 | 1015.5 |
| 20260507101750 | 47 | 22 | 4.0 | 6.0 | 0.00 | 0.06 | 0.00 | 85 | 1015.6 |
| 20260507101706 | 47 | 45 | 4.0 | 6.0 | 0.00 | 0.06 | 0.00 | 85 | 1015.6 |
| 20260507101615 | 47 | 45 | 4.0 | 7.0 | 0.00 | 0.06 | 0.00 | 84 | 1015.6 |
| 20260507101415 | 47 | 22 | 4.0 | 10.0 | 0.00 | 0.06 | 0.00 | 85 | 1015.6 |
| 20260507101227 | 47 | 45 | 4.0 | 10.0 | 0.00 | 0.06 | 0.00 | 85 | 1015.5 |
| 20260507101042 | 47 | 45 | 4.0 | 10.0 | 0.00 | 0.08 | 0.00 | 85 | 1015.5 |
| 20260507100849 | 48 | 22 | 4.0 | 8.0 | 0.00 | 0.08 | 0.00 | 86 | 1015.5 |
| 20260507100700 | 48 | 90 | 4.0 | 7.0 | 0.00 | 0.08 | 0.00 | 86 | 1015.5 |
| 20260507100509 | 48 | 22 | 4.0 | 8.0 | 0.00 | 0.08 | 0.00 | 86 | 1015.4 |
| 20260507100315 | 48 | 68 | 4.0 | 8.0 | 0.00 | 0.08 | 0.00 | 86 | 1015.5 |
| 20260507100129 | 48 | 68 | 4.0 | 9.0 | 0.00 | 0.08 | 0.00 | 85 | 1015.4 |
| 20260507100032 | 48 | 90 | 3.0 | 9.0 | 0.00 | 0.09 | 0.00 | 86 | 1015.4 |
| 20260507095935 | 48 | 90 | 3.0 | 9.0 | 0.00 | 0.09 | 0.00 | 86 | 1015.4 |
| 20260507095735 | 48 | 68 | 3.0 | 9.0 | 0.00 | 0.09 | 0.00 | 86 | 1015.4 |
| 20260507095550 | 47 | 45 | 2.0 | 6.0 | 0.00 | 0.09 | 0.00 | 87 | 1015.3 |
| 20260507095409 | 47 | 45 | 3.0 | 5.0 | 0.00 | 0.11 | 0.00 | 87 | 1015.2 |
| 20260507095220 | 47 | 45 | 4.0 | 5.0 | 0.00 | 0.11 | 0.00 | 87 | 1015.2 |
| 20260507095040 | 47 | 68 | 4.0 | 5.0 | 0.00 | 0.11 | 0.00 | 87 | 1015.2 |
| 20260507094848 | 47 | 0 | 4.0 | 7.0 | 0.00 | 0.11 | 0.00 | 87 | 1015.2 |
| 20260507094705 | 47 | 22 | 4.0 | 8.0 | 0.00 | 0.11 | 0.00 | 88 | 1015.2 |
| 20260507094510 | 47 | 22 | 4.0 | 8.0 | 0.00 | 0.11 | 0.00 | 87 | 1015.1 |
| 20260507094327 | 47 | 22 | 3.0 | 8.0 | 0.00 | 0.13 | 0.00 | 87 | 1015.2 |
| 20260507094149 | 47 | 45 | 3.0 | 8.0 | 0.00 | 0.13 | 0.00 | 87 | 1015.1 |
| 20260507094006 | 47 | 45 | 2.0 | 5.0 | 0.00 | 0.13 | 0.00 | 88 | 1015.1 |
| 20260507093814 | 47 | 22 | 2.0 | 5.0 | 0.00 | 0.13 | 0.00 | 88 | 1015.0 |
| 20260507093629 | 47 | 45 | 2.0 | 5.0 | 0.00 | 0.14 | 0.00 | 88 | 1015.0 |
| 20260507093430 | 47 | 90 | 4.0 | 7.0 | 0.00 | 0.14 | 0.00 | 88 | 1015.0 |
| 20260507093249 | 47 | 22 | 4.0 | 7.0 | 0.00 | 0.16 | 0.00 | 88 | 1015.0 |
| 20260507093049 | 47 | 68 | 5.0 | 7.0 | 0.00 | 0.16 | 0.00 | 88 | 1015.0 |
| 20260507092905 | 47 | 45 | 5.0 | 9.0 | 0.00 | 0.16 | 0.00 | 88 | 1015.0 |
| 20260507092751 | 47 | 45 | 5.0 | 12.0 | 0.00 | 0.16 | 0.00 | 89 | 1015.0 |
| 20260507092709 | 47 | 68 | 5.0 | 12.0 | 0.00 | 0.17 | 0.00 | 88 | 1015.0 |
| 20260507092514 | 47 | 45 | 5.0 | 12.0 | 0.00 | 0.17 | 0.00 | 88 | 1015.0 |
| 20260507092334 | 47 | 0 | 5.0 | 12.0 | 0.00 | 0.17 | 0.00 | 88 | 1015.0 |
| 20260507092148 | 47 | 0 | 4.0 | 7.0 | 0.00 | 0.19 | 0.00 | 88 | 1014.9 |
| 20260507092010 | 48 | 22 | 4.0 | 7.0 | 0.00 | 0.19 | 0.00 | 88 | 1014.9 |
| 20260507091812 | 48 | 45 | 5.0 | 7.0 | 0.00 | 0.19 | 0.00 | 87 | 1014.8 |
| 20260507091620 | 48 | 45 | 5.0 | 7.0 | 0.00 | 0.19 | 0.00 | 87 | 1014.9 |
| 20260507091441 | 48 | 135 | 4.0 | 10.0 | 0.00 | 0.19 | 0.00 | 87 | 1014.8 |
| 20260507091255 | 48 | 0 | 4.0 | 10.0 | 0.00 | 0.19 | 0.00 | 88 | 1014.7 |
| 20260507091106 | 48 | 22 | 4.0 | 10.0 | 0.00 | 0.20 | 0.00 | 87 | 1014.8 |
| 20260507091021 | 48 | 22 | 4.0 | 9.0 | 0.00 | 0.20 | 0.00 | 86 | 1014.7 |
| 20260507090914 | 48 | 22 | 4.0 | 9.0 | 0.00 | 0.20 | 0.00 | 85 | 1014.6 |
| 20260507090720 | 48 | 338 | 4.0 | 7.0 | 0.00 | 0.20 | 0.00 | 84 | 1014.6 |
| 20260507090531 | 48 | 45 | 4.0 | 7.0 | 0.00 | 0.22 | 0.00 | 84 | 1014.6 |
| 20260507090344 | 48 | 22 | 4.0 | 7.0 | 0.00 | 0.22 | 0.00 | 84 | 1014.6 |
| 20260507090205 | 48 | 45 | 5.0 | 10.0 | 0.00 | 0.22 | 0.00 | 84 | 1014.6 |
| 20260507090026 | 48 | 45 | 5.0 | 10.0 | 0.00 | 0.25 | 0.00 | 84 | 1014.5 |
| 20260507085836 | 48 | 45 | 4.0 | 10.0 | 0.00 | 0.25 | 0.00 | 83 | 1014.6 |
| 20260507085645 | 48 | 248 | 4.0 | 7.0 | 0.00 | 0.25 | 0.00 | 83 | 1014.5 |
| 20260507085449 | 48 | 22 | 4.0 | 7.0 | 0.00 | 0.27 | 0.00 | 83 | 1014.5 |
| 20260507085426 | 48 | 45 | 4.0 | 7.0 | 0.00 | 0.27 | 0.00 | 83 | 1014.5 |
| 20260507085249 | 48 | 45 | 4.0 | 8.0 | 0.00 | 0.27 | 0.00 | 83 | 1014.4 |
| 20260507085109 | 48 | 22 | 3.0 | 8.0 | 0.00 | 0.27 | 0.00 | 84 | 1014.5 |
| 20260507084913 | 48 | 68 | 3.0 | 8.0 | 0.00 | 0.30 | 0.00 | 83 | 1014.5 |
| 20260507084739 | 48 | 68 | 3.0 | 7.0 | 0.00 | 0.30 | 0.00 | 83 | 1014.5 |
| 20260507084545 | 48 | 68 | 3.0 | 6.0 | 0.00 | 0.30 | 0.00 | 83 | 1014.5 |
| 20260507084353 | 48 | 22 | 4.0 | 7.0 | 0.00 | 0.35 | 0.00 | 82 | 1014.3 |
| 20260507084200 | 48 | 22 | 4.0 | 10.0 | 0.00 | 0.35 | 0.00 | 82 | 1014.4 |
| 20260507084020 | 48 | 315 | 4.0 | 10.0 | 0.00 | 0.35 | 0.00 | 83 | 1014.3 |
| 20260507083825 | 48 | 22 | 4.0 | 10.0 | 0.00 | 0.36 | 0.00 | 83 | 1014.3 |
| 20260507083812 | 48 | 315 | 4.0 | 10.0 | 0.00 | 0.36 | 0.00 | 83 | 1014.2 |
| 20260507083645 | 48 | 68 | 4.0 | 10.0 | 0.00 | 0.36 | 0.00 | 82 | 1014.3 |
| 20260507083455 | 48 | 22 | 3.0 | 9.0 | 0.00 | 0.39 | 0.00 | 83 | 1014.3 |
| 20260507083302 | 48 | 22 | 3.0 | 8.0 | 0.00 | 0.39 | 0.00 | 83 | 1014.3 |
| 20260507083111 | 48 | 90 | 4.0 | 8.0 | 0.00 | 0.39 | 0.00 | 84 | 1014.2 |
| 20260507082929 | 48 | 0 | 4.0 | 8.0 | 0.00 | 0.41 | 0.00 | 83 | 1014.2 |
| 20260507082749 | 48 | 68 | 4.0 | 8.0 | 0.00 | 0.41 | 0.00 | 84 | 1014.2 |
| 20260507082605 | 48 | 68 | 4.0 | 7.0 | 0.00 | 0.41 | 0.00 | 84 | 1014.2 |
| 20260507082420 | 48 | 45 | 4.0 | 7.0 | 0.00 | 0.44 | 0.00 | 84 | 1014.1 |
| 20260507082240 | 48 | 22 | 4.0 | 8.0 | 0.00 | 0.44 | 0.00 | 84 | 1014.2 |
| 20260507082048 | 48 | 315 | 3.0 | 11.0 | 0.00 | 0.44 | 0.00 | 85 | 1014.2 |
| 20260507081856 | 48 | 0 | 3.0 | 11.0 | 0.00 | 0.47 | 0.00 | 85 | 1014.1 |
| 20260507081704 | 48 | 225 | 2.0 | 11.0 | 0.00 | 0.47 | 0.00 | 85 | 1014.1 |
| 20260507081515 | 48 | 68 | 2.0 | 4.0 | 0.00 | 0.47 | 0.00 | 85 | 1014.0 |
| 20260507081340 | 47 | 68 | 3.0 | 7.0 | 0.00 | 0.50 | 0.00 | 85 | 1014.1 |
| 20260507081200 | 47 | 68 | 3.0 | 7.0 | 0.00 | 0.50 | 0.00 | 85 | 1014.0 |
| 20260507081009 | 47 | 90 | 4.0 | 7.0 | 0.00 | 0.50 | 0.00 | 85 | 1014.0 |
| 20260507080829 | 47 | 22 | 3.0 | 6.0 | 0.00 | 0.52 | 0.00 | 85 | 1014.0 |
| 20260507080636 | 47 | 90 | 4.0 | 6.0 | 0.00 | 0.52 | 0.00 | 85 | 1014.0 |
| 20260507080453 | 47 | 68 | 4.0 | 5.0 | 0.00 | 0.52 | 0.00 | 85 | 1014.0 |
| 20260507080346 | 47 | 292 | 4.0 | 5.0 | 0.00 | 0.54 | 0.00 | 86 | 1013.9 |
| 20260507080255 | 47 | 22 | 4.0 | 5.0 | 0.00 | 0.54 | 0.00 | 86 | 1014.0 |
| 20260507080105 | 47 | 68 | 4.0 | 7.0 | 0.00 | 0.54 | 0.00 | 85 | 1014.0 |
| 20260507075925 | 47 | 90 | 4.0 | 7.0 | 0.00 | 0.54 | 0.00 | 85 | 1013.9 |
| 20260507075748 | 47 | 45 | 4.0 | 10.0 | 0.00 | 0.58 | 0.00 | 85 | 1014.0 |
| 20260507075600 | 47 | 22 | 4.0 | 5.0 | 0.00 | 0.58 | 0.00 | 86 | 1013.9 |
| 20260507075400 | 47 | 68 | 4.0 | 8.0 | 0.00 | 0.58 | 0.00 | 86 | 1013.9 |
| 20260507075205 | 47 | 45 | 5.0 | 8.0 | 0.00 | 0.60 | 0.00 | 86 | 1013.9 |
| 20260507075005 | 47 | 68 | 4.0 | 8.0 | 0.00 | 0.60 | 0.00 | 86 | 1013.9 |
| 20260507074807 | 47 | 68 | 4.0 | 10.0 | 0.00 | 0.60 | 0.00 | 86 | 1013.8 |
| 20260507074630 | 47 | 0 | 4.0 | 10.0 | 0.00 | 0.60 | 0.00 | 85 | 1013.8 |
| 20260507074455 | 47 | 0 | 4.0 | 10.0 | 0.00 | 0.60 | 0.00 | 85 | 1013.8 |
| 20260507074315 | 47 | 315 | 4.0 | 8.0 | 0.00 | 0.60 | 0.00 | 85 | 1013.8 |
| 20260507074125 | 47 | 0 | 4.0 | 8.0 | 0.00 | 0.61 | 0.00 | 85 | 1013.8 |
| 20260507073937 | 47 | 45 | 5.0 | 13.0 | 0.00 | 0.61 | 0.00 | 85 | 1013.7 |
| 20260507073800 | 47 | 90 | 4.0 | 13.0 | 0.00 | 0.61 | 0.00 | 85 | 1013.6 |
| 20260507073615 | 47 | 45 | 5.0 | 13.0 | 0.00 | 0.61 | 0.00 | 85 | 1013.7 |
| 20260507073423 | 47 | 68 | 5.0 | 13.0 | 0.00 | 0.61 | 0.00 | 85 | 1013.8 |
| 20260507073231 | 47 | 90 | 5.0 | 9.0 | 0.00 | 0.61 | 0.00 | 85 | 1013.7 |
| 20260507073050 | 47 | 90 | 5.0 | 8.0 | 0.00 | 0.61 | 0.00 | 85 | 1013.7 |
| 20260507073038 | 47 | 90 | 5.0 | 7.0 | 0.00 | 0.61 | 0.00 | 85 | 1013.7 |
| 20260507072855 | 47 | 45 | 5.0 | 10.0 | 0.00 | 0.61 | 0.00 | 85 | 1013.6 |
| 20260507072714 | 47 | 90 | 6.0 | 10.0 | 0.00 | 0.61 | 0.00 | 85 | 1013.7 |
| 20260507072515 | 47 | 45 | 6.0 | 10.0 | 0.00 | 0.61 | 0.00 | 85 | 1013.6 |
| 20260507072315 | 47 | 68 | 6.0 | 11.0 | 0.00 | 0.61 | 0.00 | 84 | 1013.5 |
| 20260507072125 | 47 | 315 | 6.0 | 11.0 | 0.00 | 0.61 | 0.00 | 85 | 1013.6 |
| 20260507071948 | 47 | 22 | 6.0 | 11.0 | 0.00 | 0.61 | 0.00 | 84 | 1013.5 |
| 20260507071758 | 47 | 68 | 6.0 | 12.0 | 0.00 | 0.61 | 0.00 | 84 | 1013.5 |
| 20260507071605 | 47 | 22 | 6.0 | 12.0 | 0.00 | 0.61 | 0.00 | 84 | 1013.5 |
| 20260507071415 | 47 | 112 | 6.0 | 11.0 | 0.00 | 0.61 | 0.00 | 84 | 1013.5 |
| 20260507071236 | 47 | 270 | 5.0 | 10.0 | 0.00 | 0.61 | 0.00 | 85 | 1013.4 |
| 20260507071218 | 47 | 270 | 5.0 | 10.0 | 0.00 | 0.61 | 0.00 | 84 | 1013.6 |
| 20260507071033 | 47 | 45 | 6.0 | 13.0 | 0.00 | 0.63 | 0.00 | 85 | 1013.4 |
| 20260507070847 | 47 | 90 | 5.0 | 13.0 | 0.00 | 0.63 | 0.00 | 85 | 1013.4 |
| 20260507070655 | 47 | 315 | 6.0 | 13.0 | 0.00 | 0.63 | 0.00 | 85 | 1013.3 |
| 20260507070455 | 47 | 90 | 6.0 | 10.0 | 0.00 | 0.63 | 0.00 | 85 | 1013.4 |
| 20260507070255 | 47 | 68 | 5.0 | 8.0 | 0.00 | 0.63 | 0.00 | 85 | 1013.3 |
| 20260507070109 | 47 | 90 | 5.0 | 8.0 | 0.00 | 0.63 | 0.00 | 85 | 1013.4 |
| 20260507065909 | 47 | 338 | 5.0 | 7.0 | 0.00 | 0.63 | 0.00 | 86 | 1013.3 |
| 20260507065725 | 47 | 338 | 5.0 | 12.0 | 0.00 | 0.63 | 0.00 | 86 | 1013.4 |
| 20260507065532 | 47 | 45 | 5.0 | 12.0 | 0.00 | 0.63 | 0.00 | 86 | 1013.3 |
| 20260507065349 | 47 | 68 | 5.0 | 12.0 | 0.00 | 0.63 | 0.00 | 86 | 1013.3 |
| 20260507065205 | 47 | 22 | 5.0 | 11.0 | 0.00 | 0.63 | 0.00 | 85 | 1013.3 |
| 20260507065018 | 47 | 22 | 4.0 | 9.0 | 0.00 | 0.63 | 0.00 | 85 | 1013.2 |
| 20260507064830 | 47 | 22 | 4.0 | 7.0 | 0.00 | 0.63 | 0.00 | 85 | 1013.3 |
| 20260507064645 | 47 | 22 | 4.0 | 5.0 | 0.00 | 0.63 | 0.00 | 85 | 1013.3 |
| 20260507064445 | 47 | 45 | 4.0 | 12.0 | 0.00 | 0.63 | 0.00 | 86 | 1013.2 |
| 20260507064247 | 47 | 45 | 4.0 | 12.0 | 0.00 | 0.63 | 0.00 | 86 | 1013.3 |
| 20260507064100 | 47 | 0 | 4.0 | 12.0 | 0.00 | 0.63 | 0.00 | 86 | 1013.2 |
| 20260507063920 | 47 | 22 | 4.0 | 9.0 | 0.00 | 0.65 | 0.00 | 86 | 1013.2 |
| 20260507063837 | 47 | 292 | 4.0 | 9.0 | 0.00 | 0.65 | 0.00 | 86 | 1013.2 |
| 20260507063728 | 47 | 22 | 4.0 | 9.0 | 0.00 | 0.65 | 0.00 | 86 | 1013.2 |
| 20260507063535 | 47 | 22 | 3.0 | 5.0 | 0.00 | 0.65 | 0.00 | 86 | 1013.3 |
| 20260507063347 | 47 | 22 | 3.0 | 6.0 | 0.00 | 0.65 | 0.00 | 86 | 1013.4 |
| 20260507063200 | 46 | 22 | 3.0 | 6.0 | 0.00 | 0.65 | 0.00 | 86 | 1013.2 |
| 20260507063001 | 46 | 68 | 3.0 | 6.0 | 0.00 | 0.65 | 0.00 | 86 | 1013.3 |
| 20260507062825 | 46 | 22 | 3.0 | 5.0 | 0.00 | 0.65 | 0.00 | 87 | 1013.3 |
| 20260507062637 | 46 | 90 | 4.0 | 5.0 | 0.00 | 0.65 | 0.00 | 86 | 1013.2 |
| 20260507062440 | 46 | 22 | 4.0 | 7.0 | 0.00 | 0.65 | 0.00 | 87 | 1013.1 |
| 20260507062300 | 46 | 68 | 4.0 | 7.0 | 0.00 | 0.65 | 0.00 | 87 | 1013.2 |
| 20260507062151 | 46 | 68 | 5.0 | 10.0 | 0.00 | 0.65 | 0.00 | 87 | 1013.2 |
| 20260507062113 | 46 | 292 | 4.0 | 10.0 | 0.00 | 0.65 | 0.00 | 87 | 1013.2 |
| 20260507061937 | 46 | 22 | 4.0 | 10.0 | 0.00 | 0.65 | 0.00 | 87 | 1013.2 |
| 20260507061754 | 46 | 68 | 4.0 | 10.0 | 0.00 | 0.65 | 0.00 | 87 | 1013.1 |
| 20260507061607 | 46 | 45 | 4.0 | 9.0 | 0.00 | 0.65 | 0.00 | 88 | 1013.2 |
| 20260507061428 | 46 | 45 | 4.0 | 9.0 | 0.00 | 0.65 | 0.00 | 88 | 1013.1 |
| 20260507061234 | 46 | 45 | 4.0 | 9.0 | 0.00 | 0.66 | 0.00 | 88 | 1013.0 |
| 20260507061048 | 46 | 45 | 4.0 | 11.0 | 0.00 | 0.66 | 0.00 | 88 | 1013.0 |
| 20260507060855 | 46 | 22 | 4.0 | 11.0 | 0.00 | 0.66 | 0.00 | 88 | 1013.0 |
| 20260507060714 | 46 | 45 | 4.0 | 11.0 | 0.00 | 0.66 | 0.00 | 88 | 1012.9 |
| 20260507060525 | 46 | 68 | 4.0 | 10.0 | 0.00 | 0.66 | 0.00 | 88 | 1012.9 |
| 20260507060345 | 46 | 338 | 4.0 | 10.0 | 0.00 | 0.66 | 0.00 | 88 | 1012.9 |
| 20260507060255 | 46 | 45 | 4.0 | 10.0 | 0.00 | 0.68 | 0.00 | 88 | 1012.9 |
| 20260507060155 | 46 | 22 | 4.0 | 10.0 | 0.00 | 0.68 | 0.00 | 88 | 1012.9 |
| 20260507055955 | 46 | 90 | 4.0 | 6.0 | 0.00 | 0.68 | 0.00 | 88 | 1012.9 |
| 20260507055812 | 46 | 22 | 4.0 | 11.0 | 0.00 | 0.68 | 0.00 | 88 | 1012.9 |
| 20260507055618 | 46 | 0 | 5.0 | 11.0 | 0.00 | 0.68 | 0.00 | 88 | 1012.9 |
| 20260507055435 | 46 | 45 | 6.0 | 11.0 | 0.00 | 0.68 | 0.00 | 87 | 1012.8 |
| 20260507055250 | 46 | 68 | 5.0 | 11.0 | 0.00 | 0.68 | 0.00 | 88 | 1012.9 |
| 20260507055105 | 46 | 68 | 5.0 | 13.0 | 0.00 | 0.68 | 0.00 | 88 | 1012.8 |
| 20260507054909 | 46 | 45 | 5.0 | 13.0 | 0.00 | 0.68 | 0.00 | 88 | 1012.8 |
| 20260507054715 | 46 | 68 | 4.0 | 13.0 | 0.00 | 0.68 | 0.00 | 88 | 1012.9 |
| 20260507054648 | 46 | 270 | 4.0 | 13.0 | 0.00 | 0.68 | 0.00 | 88 | 1012.9 |
| 20260507054521 | 46 | 0 | 4.0 | 10.0 | 0.00 | 0.68 | 0.00 | 88 | 1012.8 |
| 20260507054336 | 46 | 45 | 4.0 | 7.0 | 0.00 | 0.68 | 0.00 | 88 | 1012.8 |
| 20260507054150 | 46 | 68 | 4.0 | 10.0 | 0.00 | 0.68 | 0.00 | 88 | 1012.8 |
| 20260507054008 | 46 | 90 | 4.0 | 5.0 | 0.00 | 0.69 | 0.00 | 89 | 1012.8 |
| 20260507053820 | 46 | 68 | 4.0 | 10.0 | 0.00 | 0.69 | 0.00 | 89 | 1012.8 |
| 20260507053628 | 46 | 90 | 5.0 | 10.0 | 0.00 | 0.69 | 0.00 | 89 | 1012.7 |
| 20260507053448 | 46 | 0 | 4.0 | 9.0 | 0.00 | 0.69 | 0.00 | 89 | 1012.6 |
| 20260507053304 | 46 | 22 | 4.0 | 9.0 | 0.00 | 0.69 | 0.00 | 89 | 1012.8 |
| 20260507053105 | 46 | 90 | 5.0 | 11.0 | 0.00 | 0.69 | 0.00 | 89 | 1012.7 |
| 20260507053042 | 46 | 45 | 5.0 | 11.0 | 0.00 | 0.69 | 0.00 | 89 | 1012.6 |
| 20260507052920 | 46 | 68 | 5.0 | 11.0 | 0.00 | 0.71 | 0.00 | 89 | 1012.6 |
| 20260507052740 | 46 | 45 | 5.0 | 11.0 | 0.00 | 0.71 | 0.00 | 89 | 1012.6 |
| 20260507052600 | 46 | 338 | 5.0 | 10.0 | 0.00 | 0.71 | 0.00 | 89 | 1012.6 |
| 20260507052418 | 46 | 45 | 5.0 | 10.0 | 0.00 | 0.71 | 0.00 | 89 | 1012.5 |
| 20260507052220 | 46 | 135 | 5.0 | 11.0 | 0.00 | 0.71 | 0.00 | 90 | 1012.5 |
| 20260507052040 | 46 | 68 | 5.0 | 11.0 | 0.00 | 0.71 | 0.00 | 90 | 1012.5 |
| 20260507051900 | 46 | 68 | 5.0 | 11.0 | 0.00 | 0.71 | 0.00 | 89 | 1012.5 |
| 20260507051715 | 46 | 68 | 4.0 | 9.0 | 0.00 | 0.71 | 0.00 | 89 | 1012.5 |
| 20260507051520 | 46 | 22 | 4.0 | 9.0 | 0.00 | 0.71 | 0.00 | 89 | 1012.6 |
| 20260507051325 | 46 | 90 | 3.0 | 9.0 | 0.00 | 0.72 | 0.00 | 90 | 1012.4 |
| 20260507051215 | 46 | 22 | 3.0 | 7.0 | 0.00 | 0.72 | 0.00 | 89 | 1012.6 |
| 20260507051137 | 46 | 90 | 3.0 | 6.0 | 0.00 | 0.72 | 0.00 | 90 | 1012.6 |
| 20260507050940 | 46 | 45 | 4.0 | 6.0 | 0.00 | 0.72 | 0.00 | 89 | 1012.4 |
| 20260507050745 | 46 | 45 | 4.0 | 9.0 | 0.00 | 0.72 | 0.00 | 89 | 1012.4 |
| 20260507050600 | 46 | 45 | 4.0 | 9.0 | 0.00 | 0.72 | 0.00 | 90 | 1012.5 |
| 20260507050415 | 46 | 90 | 4.0 | 9.0 | 0.00 | 0.72 | 0.00 | 89 | 1012.4 |
| 20260507050229 | 46 | 22 | 4.0 | 8.0 | 0.00 | 0.74 | 0.00 | 89 | 1012.6 |
| 20260507050035 | 46 | 22 | 3.0 | 8.0 | 0.00 | 0.74 | 0.00 | 89 | 1012.4 |
| 20260507045845 | 46 | 68 | 3.0 | 7.0 | 0.00 | 0.74 | 0.00 | 89 | 1012.4 |
| 20260507045645 | 46 | 22 | 4.0 | 10.0 | 0.00 | 0.76 | 0.00 | 89 | 1012.4 |
| 20260507045532 | 46 | 45 | 4.0 | 10.0 | 0.00 | 0.76 | 0.00 | 89 | 1012.4 |
| 20260507045504 | 46 | 45 | 4.0 | 10.0 | 0.00 | 0.76 | 0.00 | 89 | 1012.4 |
| 20260507045325 | 46 | 22 | 4.0 | 10.0 | 0.00 | 0.76 | 0.00 | 89 | 1012.3 |
| 20260507045140 | 46 | 45 | 4.0 | 7.0 | 0.00 | 0.77 | 0.00 | 89 | 1012.3 |
| 20260507044945 | 46 | 22 | 4.0 | 7.0 | 0.00 | 0.77 | 0.00 | 89 | 1012.3 |
| 20260507044757 | 46 | 22 | 4.0 | 7.0 | 0.00 | 0.77 | 0.00 | 90 | 1012.2 |
| 20260507044618 | 46 | 112 | 4.0 | 6.0 | 0.00 | 0.79 | 0.00 | 90 | 1012.2 |
| 20260507044439 | 46 | 22 | 4.0 | 13.0 | 0.00 | 0.79 | 0.00 | 90 | 1012.2 |
| 20260507044300 | 46 | 68 | 4.0 | 13.0 | 0.00 | 0.79 | 0.00 | 90 | 1012.2 |
| 20260507044100 | 46 | 90 | 4.0 | 13.0 | 0.00 | 0.80 | 0.00 | 90 | 1012.0 |
| 20260507043901 | 46 | 45 | 5.0 | 10.0 | 0.00 | 0.80 | 0.00 | 90 | 1012.2 |
| 20260507043715 | 46 | 68 | 5.0 | 9.0 | 0.00 | 0.82 | 0.00 | 90 | 1012.1 |
| 20260507043649 | 46 | 22 | 5.0 | 9.0 | 0.00 | 0.82 | 0.00 | 90 | 1012.1 |
| 20260507043520 | 46 | 315 | 5.0 | 9.0 | 0.00 | 0.82 | 0.00 | 90 | 1012.0 |
| 20260507043323 | 46 | 0 | 6.0 | 10.0 | 0.00 | 0.82 | 0.00 | 90 | 1012.1 |
| 20260507043132 | 46 | 22 | 6.0 | 10.0 | 0.00 | 0.83 | 0.00 | 90 | 1012.0 |
| 20260507042933 | 46 | 0 | 5.0 | 9.0 | 0.00 | 0.83 | 0.00 | 90 | 1012.0 |
| 20260507042755 | 46 | 22 | 5.0 | 9.0 | 0.00 | 0.83 | 0.00 | 90 | 1011.9 |
| 20260507042600 | 46 | 0 | 4.0 | 9.0 | 0.00 | 0.85 | 0.00 | 90 | 1011.9 |
| 20260507042408 | 46 | 22 | 4.0 | 9.0 | 0.00 | 0.85 | 0.00 | 90 | 1012.0 |
| 20260507042215 | 46 | 45 | 3.0 | 7.0 | 0.00 | 0.85 | 0.00 | 90 | 1012.0 |
| 20260507042019 | 46 | 68 | 3.0 | 7.0 | 0.00 | 0.87 | 0.00 | 90 | 1012.1 |
| 20260507041926 | 46 | 90 | 3.0 | 7.0 | 0.00 | 0.87 | 0.00 | 90 | 1012.0 |
| 20260507041835 | 46 | 292 | 3.0 | 7.0 | 0.00 | 0.87 | 0.00 | 91 | 1012.1 |
| 20260507041637 | 46 | 68 | 3.0 | 6.0 | 0.00 | 0.87 | 0.00 | 90 | 1012.1 |
| 20260507041455 | 46 | 22 | 3.0 | 7.0 | 0.00 | 0.88 | 0.00 | 91 | 1012.0 |
| 20260507041315 | 46 | 45 | 3.0 | 7.0 | 0.00 | 0.88 | 0.00 | 91 | 1012.0 |
| 20260507041133 | 46 | 68 | 3.0 | 7.0 | 0.00 | 0.88 | 0.00 | 91 | 1012.0 |
| 20260507040935 | 46 | 22 | 3.0 | 6.0 | 0.00 | 0.90 | 0.00 | 91 | 1012.0 |
| 20260507040740 | 46 | 45 | 2.0 | 5.0 | 0.00 | 0.90 | 0.00 | 91 | 1012.0 |
| 20260507040600 | 46 | 22 | 2.0 | 5.0 | 0.00 | 0.90 | 0.00 | 91 | 1012.0 |
| 20260507040405 | 46 | 68 | 2.0 | 5.0 | 0.00 | 0.91 | 0.00 | 91 | 1011.9 |
| 20260507040230 | 46 | 45 | 2.0 | 5.0 | 0.00 | 0.91 | 0.00 | 90 | 1011.8 |
| 20260507040057 | 46 | 45 | 2.0 | 5.0 | 0.00 | 0.91 | 0.00 | 90 | 1011.9 |
| 20260507040045 | 46 | 45 | 2.0 | 5.0 | 0.00 | 0.91 | 0.00 | 90 | 1011.9 |
| 20260507035900 | 46 | 90 | 3.0 | 4.0 | 0.00 | 0.93 | 0.00 | 90 | 1011.9 |
| 20260507035720 | 46 | 90 | 3.0 | 5.0 | 0.00 | 0.93 | 0.00 | 90 | 1011.9 |
| 20260507035537 | 46 | 90 | 3.0 | 4.0 | 0.00 | 0.93 | 0.00 | 90 | 1011.8 |
| 20260507035350 | 46 | 90 | 4.0 | 6.0 | 0.00 | 0.94 | 0.00 | 90 | 1011.7 |
| 20260507035200 | 46 | 45 | 4.0 | 8.0 | 0.00 | 0.94 | 0.00 | 90 | 1011.6 |
| 20260507035005 | 46 | 22 | 4.0 | 8.0 | 0.00 | 0.94 | 0.00 | 90 | 1011.5 |
| 20260507034804 | 46 | 90 | 3.0 | 6.0 | 0.00 | 0.96 | 0.00 | 90 | 1011.6 |
| 20260507034628 | 46 | 45 | 3.0 | 6.0 | 0.00 | 0.96 | 0.00 | 90 | 1011.6 |
| 20260507034515 | 46 | 22 | 3.0 | 6.0 | 0.00 | 0.96 | 0.00 | 90 | 1011.6 |
| 20260507034450 | 46 | 45 | 3.0 | 5.0 | 0.00 | 0.96 | 0.00 | 90 | 1011.5 |
| 20260507034305 | 46 | 45 | 2.0 | 5.0 | 0.00 | 0.98 | 0.00 | 90 | 1011.6 |
| 20260507034128 | 46 | 45 | 2.0 | 10.0 | 0.00 | 0.98 | 0.00 | 90 | 1011.6 |
| 20260507033940 | 46 | 45 | 3.0 | 10.0 | 0.00 | 0.98 | 0.00 | 90 | 1011.5 |
| 20260507033755 | 46 | 45 | 3.0 | 10.0 | 0.00 | 0.98 | 0.00 | 90 | 1011.6 |
| 20260507033615 | 46 | 68 | 3.0 | 5.0 | 0.00 | 0.98 | 0.00 | 90 | 1011.6 |
| 20260507033425 | 46 | 45 | 3.0 | 6.0 | 0.00 | 0.98 | 0.00 | 90 | 1011.6 |
| 20260507033245 | 46 | 90 | 4.0 | 8.0 | 0.00 | 0.98 | 0.00 | 90 | 1011.6 |
| 20260507033049 | 46 | 68 | 4.0 | 8.0 | 0.00 | 0.98 | 0.00 | 90 | 1011.5 |
| 20260507032900 | 46 | 45 | 5.0 | 8.0 | 0.00 | 0.98 | 0.00 | 91 | 1011.5 |
| 20260507032854 | 46 | 45 | 4.0 | 8.0 | 0.00 | 0.99 | 0.00 | 91 | 1011.5 |
| 20260507032705 | 46 | 68 | 5.0 | 9.0 | 0.00 | 0.99 | 0.00 | 91 | 1011.5 |
| 20260507032509 | 46 | 22 | 5.0 | 9.0 | 0.00 | 0.99 | 0.00 | 90 | 1011.5 |
| 20260507032325 | 46 | 68 | 6.0 | 9.0 | 0.00 | 1.01 | 0.00 | 90 | 1011.5 |
| 20260507032129 | 46 | 22 | 6.0 | 7.0 | 0.00 | 1.01 | 0.00 | 91 | 1011.6 |
| 20260507031929 | 46 | 68 | 5.0 | 10.0 | 0.00 | 1.01 | 0.00 | 91 | 1011.6 |
| 20260507031753 | 46 | 68 | 5.0 | 12.0 | 0.00 | 1.01 | 0.00 | 91 | 1011.6 |
| 20260507031555 | 46 | 68 | 5.0 | 12.0 | 0.00 | 1.01 | 0.00 | 91 | 1011.5 |
| 20260507031415 | 46 | 68 | 4.0 | 11.0 | 0.00 | 1.01 | 0.00 | 90 | 1011.4 |
| 20260507031225 | 46 | 22 | 4.0 | 13.0 | 0.00 | 1.01 | 0.00 | 90 | 1011.5 |
| 20260507031040 | 46 | 68 | 5.0 | 13.0 | 0.00 | 1.02 | 0.00 | 91 | 1011.4 |
| 20260507031021 | 46 | 68 | 5.0 | 13.0 | 0.00 | 1.02 | 0.00 | 91 | 1011.3 |
| 20260507030900 | 46 | 112 | 5.0 | 13.0 | 0.00 | 1.02 | 0.00 | 90 | 1011.4 |
| 20260507030712 | 46 | 68 | 5.0 | 11.0 | 0.00 | 1.02 | 0.00 | 91 | 1011.4 |
| 20260507030525 | 46 | 68 | 5.0 | 11.0 | 0.00 | 1.02 | 0.00 | 91 | 1011.4 |
| 20260507030345 | 46 | 90 | 5.0 | 11.0 | 0.00 | 1.02 | 0.00 | 90 | 1011.4 |
| 20260507030148 | 46 | 22 | 4.0 | 7.0 | 0.00 | 1.02 | 0.00 | 91 | 1011.4 |
| 20260507030000 | 46 | 68 | 4.0 | 11.0 | 0.00 | 1.04 | 0.00 | 91 | 1011.5 |